Time,TemperatureF,DewpointF,PressureIn,WindDirection,WindDirectionDegrees,WindSpeedMPH,WindSpeedGustMPH,Humidity,HourlyPrecipIn,Conditions,Clouds,dailyrainin,SoftwareType,DateUTC
2013-03-17 00:04:00,16.0,11.5,30.28,NW,325,1.0,3.0,82,0.00,,,0.00,Wunderground v.1.15,2013-03-17 05:04:00,
2013-03-17 00:07:00,16.1,11.8,30.29,NW,324,4.0,4.0,83,0.00,,,0.00,Wunderground v.1.15,2013-03-17 05:07:00,
2013-03-17 00:10:00,16.0,11.7,30.29,NNW,332,3.0,3.0,83,0.00,,,0.00,Wunderground v.1.15,2013-03-17 05:10:00,
2013-03-17 00:12:00,16.0,11.5,30.29,NNW,340,1.0,3.0,82,0.00,,,0.00,Wunderground v.1.15,2013-03-17 05:12:00,
2013-03-17 00:13:00,15.9,11.4,30.29,NNW,340,0.0,3.0,82,0.00,,,0.00,Wunderground v.1.15,2013-03-17 05:13:00,
2013-03-17 00:15:00,15.9,11.4,30.29,NNW,340,0.0,3.0,82,0.00,,,0.00,Wunderground v.1.15,2013-03-17 05:15:00,
2013-03-17 00:18:00,15.9,11.4,30.29,SE,140,0.0,3.0,82,0.00,,,0.00,Wunderground v.1.15,2013-03-17 05:18:00,
2013-03-17 00:20:00,15.8,11.0,30.29,SE,140,1.0,1.0,81,0.00,,,0.00,Wunderground v.1.15,2013-03-17 05:20:00,
2013-03-17 00:22:00,15.8,11.0,30.29,North,5,2.0,2.0,81,0.00,,,0.00,Wunderground v.1.15,2013-03-17 05:22:00,
2013-03-17 00:23:00,15.7,10.9,30.29,North,5,1.0,2.0,81,0.00,,,0.00,Wunderground v.1.15,2013-03-17 05:23:00,
2013-03-17 00:27:00,15.8,11.6,30.29,NW,321,1.0,2.0,83,0.00,,,0.00,Wunderground v.1.15,2013-03-17 05:27:00,
2013-03-17 00:28:00,15.8,11.6,30.29,NNW,331,4.0,4.0,83,0.00,,,0.00,Wunderground v.1.15,2013-03-17 05:28:00,
2013-03-17 00:32:00,15.8,11.6,30.29,NE,44,3.0,3.0,83,0.00,,,0.00,Wunderground v.1.15,2013-03-17 05:32:00,
2013-03-17 00:33:00,15.8,11.8,30.29,NE,45,2.0,3.0,84,0.00,,,0.00,Wunderground v.1.15,2013-03-17 05:33:00,
2013-03-17 00:37:00,15.7,11.2,30.29,NNE,24,2.0,3.0,82,0.00,,,0.00,Wunderground v.1.15,2013-03-17 05:37:00,
2013-03-17 00:38:00,15.7,11.2,30.29,NNE,24,2.0,3.0,82,0.00,,,0.00,Wunderground v.1.15,2013-03-17 05:38:00,
2013-03-17 00:39:00,15.7,11.5,30.29,NNE,24,2.0,3.0,83,0.00,,,0.00,Wunderground v.1.15,2013-03-17 05:39:00,
2013-03-17 00:42:00,15.6,11.4,30.29,NNE,24,1.0,2.0,83,0.00,,,0.00,Wunderground v.1.15,2013-03-17 05:42:00,
2013-03-17 00:45:00,15.7,11.7,30.29,NW,326,2.0,2.0,84,0.00,,,0.00,Wunderground v.1.15,2013-03-17 05:45:00,
2013-03-17 00:46:00,15.6,11.4,30.29,NNW,329,2.0,2.0,83,0.00,,,0.00,Wunderground v.1.15,2013-03-17 05:46:00,
2013-03-17 00:48:00,15.6,11.6,30.29,NNE,13,2.0,2.0,84,0.00,,,0.00,Wunderground v.1.15,2013-03-17 05:48:00,
2013-03-17 00:52:00,15.6,11.6,30.29,NNE,13,0.0,1.0,84,0.00,,,0.00,Wunderground v.1.15,2013-03-17 05:52:00,
2013-03-17 00:53:00,15.6,11.6,30.29,NNE,13,2.0,2.0,84,0.00,,,0.00,Wunderground v.1.15,2013-03-17 05:53:00,
2013-03-17 00:56:00,15.6,11.6,30.29,NNW,330,3.0,3.0,84,0.00,,,0.00,Wunderground v.1.15,2013-03-17 05:56:00,
2013-03-17 00:58:00,15.6,11.6,30.29,NNW,330,3.0,3.0,84,0.00,,,0.00,Wunderground v.1.15,2013-03-17 05:58:00,
2013-03-17 00:59:00,15.6,11.6,30.29,NNW,327,1.0,3.0,84,0.00,,,0.00,Wunderground v.1.15,2013-03-17 05:59:00,
2013-03-17 01:01:00,15.5,11.5,30.30,NW,319,0.0,2.0,84,0.00,,,0.00,Wunderground v.1.15,2013-03-17 06:01:00,
2013-03-17 01:04:00,15.5,11.5,30.29,NW,319,3.0,3.0,84,0.00,,,0.00,Wunderground v.1.15,2013-03-17 06:04:00,
2013-03-17 01:07:00,15.4,11.4,30.30,NNE,32,2.0,3.0,84,0.00,,,0.00,Wunderground v.1.15,2013-03-17 06:07:00,
2013-03-17 01:08:00,15.4,11.4,30.29,NNE,32,1.0,3.0,84,0.00,,,0.00,Wunderground v.1.15,2013-03-17 06:08:00,
2013-03-17 01:10:00,15.3,11.3,30.29,NNE,32,1.0,1.0,84,0.00,,,0.00,Wunderground v.1.15,2013-03-17 06:10:00,
2013-03-17 01:14:00,15.2,11.0,30.29,North,355,1.0,1.0,83,0.00,,,0.00,Wunderground v.1.15,2013-03-17 06:14:00,
2013-03-17 01:16:00,15.1,10.9,30.29,North,5,2.0,2.0,83,0.00,,,0.00,Wunderground v.1.15,2013-03-17 06:16:00,
2013-03-17 01:19:00,15.1,11.1,30.29,NNE,12,3.0,3.0,84,0.00,,,0.00,Wunderground v.1.15,2013-03-17 06:19:00,
2013-03-17 01:20:00,15.0,11.0,30.29,NNE,12,0.0,1.0,84,0.00,,,0.00,Wunderground v.1.15,2013-03-17 06:20:00,
2013-03-17 01:21:00,15.0,11.0,30.28,NNE,12,0.0,1.0,84,0.00,,,0.00,Wunderground v.1.15,2013-03-17 06:21:00,
2013-03-17 01:25:00,15.0,11.0,30.29,NNE,24,0.0,3.0,84,0.00,,,0.00,Wunderground v.1.15,2013-03-17 06:25:00,
2013-03-17 01:27:00,14.9,10.9,30.28,NNE,24,1.0,3.0,84,0.00,,,0.00,Wunderground v.1.15,2013-03-17 06:27:00,
2013-03-17 01:30:00,14.9,10.9,30.28,NNW,335,0.0,1.0,84,0.00,,,0.00,Wunderground v.1.15,2013-03-17 06:30:00,
2013-03-17 01:33:00,14.8,10.8,30.28,NNE,14,0.0,3.0,84,0.00,,,0.00,Wunderground v.1.15,2013-03-17 06:33:00,
2013-03-17 01:34:00,14.8,10.8,30.28,NNE,14,2.0,3.0,84,0.00,,,0.00,Wunderground v.1.15,2013-03-17 06:34:00,
2013-03-17 01:36:00,14.8,10.8,30.28,NNE,14,0.0,3.0,84,0.00,,,0.00,Wunderground v.1.15,2013-03-17 06:36:00,
2013-03-17 01:38:00,14.7,10.7,30.27,NNE,14,2.0,3.0,84,0.00,,,0.00,Wunderground v.1.15,2013-03-17 06:38:00,
2013-03-17 01:39:00,14.6,10.6,30.27,NNE,14,2.0,3.0,84,0.00,,,0.00,Wunderground v.1.15,2013-03-17 06:39:00,
2013-03-17 01:40:00,14.6,10.6,30.27,NNE,14,2.0,2.0,84,0.00,,,0.00,Wunderground v.1.15,2013-03-17 06:40:00,
2013-03-17 01:43:00,14.5,10.5,30.27,NNE,15,2.0,2.0,84,0.00,,,0.00,Wunderground v.1.15,2013-03-17 06:43:00,
2013-03-17 01:48:00,14.5,10.5,30.28,NNE,15,2.0,4.0,84,0.00,,,0.00,Wunderground v.1.15,2013-03-17 06:48:00,
2013-03-17 01:49:00,14.5,10.5,30.27,NNE,15,3.0,4.0,84,0.00,,,0.00,Wunderground v.1.15,2013-03-17 06:49:00,
2013-03-17 01:52:00,14.4,10.4,30.28,NNE,19,2.0,2.0,84,0.00,,,0.00,Wunderground v.1.15,2013-03-17 06:52:00,
2013-03-17 01:56:00,14.3,10.4,30.27,North,10,2.0,4.0,84,0.00,,,0.00,Wunderground v.1.15,2013-03-17 06:56:00,
2013-03-17 01:57:00,14.3,10.4,30.27,North,10,2.0,4.0,84,0.00,,,0.00,Wunderground v.1.15,2013-03-17 06:57:00,
2013-03-17 01:59:00,14.3,10.1,30.27,North,10,2.0,4.0,83,0.00,,,0.00,Wunderground v.1.15,2013-03-17 06:59:00,
2013-03-17 02:01:00,14.3,10.4,30.27,NNE,20,3.0,3.0,84,0.00,,,0.00,Wunderground v.1.15,2013-03-17 07:01:00,
2013-03-17 02:02:00,14.3,10.4,30.27,NNE,20,3.0,3.0,84,0.00,,,0.00,Wunderground v.1.15,2013-03-17 07:02:00,
2013-03-17 02:04:00,14.2,10.3,30.27,NNE,20,2.0,4.0,84,0.00,,,0.00,Wunderground v.1.15,2013-03-17 07:04:00,
2013-03-17 02:06:00,14.1,10.2,30.27,NNE,20,3.0,4.0,84,0.00,,,0.00,Wunderground v.1.15,2013-03-17 07:06:00,
2013-03-17 02:07:00,14.2,10.3,30.27,NNE,20,2.0,5.0,84,0.00,,,0.00,Wunderground v.1.15,2013-03-17 07:07:00,
2013-03-17 02:09:00,14.2,10.5,30.27,NNE,30,4.0,5.0,85,0.00,,,0.00,Wunderground v.1.15,2013-03-17 07:09:00,
2013-03-17 02:11:00,14.1,10.2,30.27,NNE,32,3.0,5.0,84,0.00,,,0.00,Wunderground v.1.15,2013-03-17 07:11:00,
2013-03-17 02:12:00,14.1,10.2,30.27,NNE,32,2.0,5.0,84,0.00,,,0.00,Wunderground v.1.15,2013-03-17 07:12:00,
2013-03-17 02:13:00,14.0,10.1,30.27,NNE,26,4.0,5.0,84,0.00,,,0.00,Wunderground v.1.15,2013-03-17 07:13:00,
2013-03-17 02:15:00,14.0,10.1,30.27,NNE,32,3.0,5.0,84,0.00,,,0.00,Wunderground v.1.15,2013-03-17 07:15:00,
2013-03-17 02:17:00,13.9,10.0,30.26,NNE,24,4.0,5.0,84,0.00,,,0.00,Wunderground v.1.15,2013-03-17 07:17:00,
2013-03-17 02:18:00,13.9,10.0,30.26,NNE,24,4.0,5.0,84,0.00,,,0.00,Wunderground v.1.15,2013-03-17 07:18:00,
2013-03-17 02:20:00,13.9,10.0,30.27,NNE,32,2.0,5.0,84,0.00,,,0.00,Wunderground v.1.15,2013-03-17 07:20:00,
2013-03-17 02:23:00,13.8,9.9,30.27,NNE,24,3.0,4.0,84,0.00,,,0.00,Wunderground v.1.15,2013-03-17 07:23:00,
2013-03-17 02:24:00,13.7,9.8,30.27,NNE,24,2.0,4.0,84,0.00,,,0.00,Wunderground v.1.15,2013-03-17 07:24:00,
2013-03-17 02:25:00,13.7,9.8,30.27,NNE,24,3.0,4.0,84,0.00,,,0.00,Wunderground v.1.15,2013-03-17 07:25:00,
2013-03-17 02:29:00,13.7,9.8,30.27,NNE,31,2.0,4.0,84,0.00,,,0.00,Wunderground v.1.15,2013-03-17 07:29:00,
2013-03-17 02:30:00,13.7,9.8,30.27,NNE,30,6.0,6.0,84,0.00,,,0.00,Wunderground v.1.15,2013-03-17 07:30:00,
2013-03-17 02:34:00,13.5,9.6,30.27,NNE,27,8.0,12.0,84,0.00,,,0.00,Wunderground v.1.15,2013-03-17 07:34:00,
2013-03-17 02:35:00,13.5,9.6,30.27,NE,35,5.0,12.0,84,0.00,,,0.00,Wunderground v.1.15,2013-03-17 07:35:00,
2013-03-17 02:39:00,13.5,9.6,30.27,NE,37,5.0,12.0,84,0.00,,,0.00,Wunderground v.1.15,2013-03-17 07:39:00,
2013-03-17 02:40:00,13.3,9.4,30.27,NNE,31,3.0,12.0,84,0.00,,,0.00,Wunderground v.1.15,2013-03-17 07:40:00,
2013-03-17 02:44:00,13.3,9.6,30.27,NNE,22,3.0,5.0,85,0.00,,,0.00,Wunderground v.1.15,2013-03-17 07:44:00,
2013-03-17 02:45:00,13.3,9.6,30.27,NNE,22,2.0,5.0,85,0.00,,,0.00,Wunderground v.1.15,2013-03-17 07:45:00,
2013-03-17 02:46:00,13.3,9.6,30.27,NNE,22,2.0,5.0,85,0.00,,,0.00,Wunderground v.1.15,2013-03-17 07:46:00,
2013-03-17 02:49:00,13.2,9.5,30.27,NE,42,4.0,6.0,85,0.00,,,0.00,Wunderground v.1.15,2013-03-17 07:49:00,
2013-03-17 02:50:00,13.2,9.5,30.27,NNE,28,8.0,8.0,85,0.00,,,0.00,Wunderground v.1.15,2013-03-17 07:50:00,
2013-03-17 02:51:00,13.2,9.5,30.27,NE,43,6.0,7.0,85,0.00,,,0.00,Wunderground v.1.15,2013-03-17 07:51:00,
2013-03-17 02:55:00,12.8,8.9,30.26,NNE,30,5.0,10.0,84,0.00,,,0.00,Wunderground v.1.15,2013-03-17 07:55:00,
2013-03-17 02:57:00,12.8,8.9,30.26,NE,44,8.0,10.0,84,0.00,,,0.00,Wunderground v.1.15,2013-03-17 07:57:00,
2013-03-17 02:58:00,12.7,8.8,30.26,NNE,32,7.0,10.0,84,0.00,,,0.00,Wunderground v.1.15,2013-03-17 07:58:00,
2013-03-17 03:00:00,12.6,8.7,30.26,NE,42,5.0,8.0,84,0.00,,,0.00,Wunderground v.1.15,2013-03-17 08:00:00,
2013-03-17 03:03:00,12.7,9.0,30.26,NE,37,5.0,8.0,85,0.00,,,0.00,Wunderground v.1.15,2013-03-17 08:03:00,
2013-03-17 03:05:00,12.6,8.9,30.26,NE,47,6.0,9.0,85,0.00,,,0.00,Wunderground v.1.15,2013-03-17 08:05:00,
2013-03-17 03:06:00,12.6,8.9,30.26,NE,49,7.0,9.0,85,0.00,,,0.00,Wunderground v.1.15,2013-03-17 08:06:00,
2013-03-17 03:08:00,12.5,8.8,30.26,NNE,32,5.0,10.0,85,0.00,,,0.00,Wunderground v.1.15,2013-03-17 08:08:00,
2013-03-17 03:11:00,12.3,8.4,30.25,NNE,26,8.0,10.0,84,0.00,,,0.00,Wunderground v.1.15,2013-03-17 08:11:00,
2013-03-17 03:12:00,12.3,8.4,30.25,NNE,24,5.0,10.0,84,0.00,,,0.00,Wunderground v.1.15,2013-03-17 08:12:00,
2013-03-17 03:13:00,12.3,8.4,30.25,North,5,5.0,10.0,84,0.00,,,0.00,Wunderground v.1.15,2013-03-17 08:13:00,
2013-03-17 03:17:00,12.2,8.6,30.25,NNE,22,10.0,10.0,85,0.00,,,0.00,Wunderground v.1.15,2013-03-17 08:17:00,
2013-03-17 03:18:00,12.1,8.2,30.25,NE,34,7.0,10.0,84,0.00,,,0.00,Wunderground v.1.15,2013-03-17 08:18:00,
2013-03-17 03:22:00,12.2,8.6,30.25,NE,48,5.0,10.0,85,0.00,,,0.00,Wunderground v.1.15,2013-03-17 08:22:00,
2013-03-17 03:23:00,12.2,8.6,30.25,NNE,27,5.0,11.0,85,0.00,,,0.00,Wunderground v.1.15,2013-03-17 08:23:00,
2013-03-17 03:24:00,12.1,8.5,30.25,NE,37,6.0,11.0,85,0.00,,,0.00,Wunderground v.1.15,2013-03-17 08:24:00,
2013-03-17 03:27:00,12.0,8.4,30.25,NE,51,6.0,11.0,85,0.00,,,0.00,Wunderground v.1.15,2013-03-17 08:27:00,
2013-03-17 03:28:00,12.0,8.4,30.24,NE,40,8.0,11.0,85,0.00,,,0.00,Wunderground v.1.15,2013-03-17 08:28:00,
2013-03-17 03:29:00,11.9,8.3,30.24,NE,40,6.0,11.0,85,0.00,,,0.00,Wunderground v.1.15,2013-03-17 08:29:00,
2013-03-17 03:32:00,11.9,8.3,30.24,NNE,30,4.0,10.0,85,0.00,,,0.00,Wunderground v.1.15,2013-03-17 08:32:00,
2013-03-17 03:33:00,11.9,8.3,30.24,NE,47,5.0,10.0,85,0.00,,,0.00,Wunderground v.1.15,2013-03-17 08:33:00,
2013-03-17 03:34:00,11.9,8.3,30.24,NNE,32,6.0,10.0,85,0.00,,,0.00,Wunderground v.1.15,2013-03-17 08:34:00,
2013-03-17 03:38:00,11.6,7.7,30.25,NE,35,4.0,11.0,84,0.00,,,0.00,Wunderground v.1.15,2013-03-17 08:38:00,
2013-03-17 03:39:00,11.6,7.7,30.25,NE,41,4.0,11.0,84,0.00,,,0.00,Wunderground v.1.15,2013-03-17 08:39:00,
2013-03-17 03:43:00,11.5,7.6,30.24,NNE,28,8.0,9.0,84,0.00,,,0.00,Wunderground v.1.15,2013-03-17 08:43:00,
2013-03-17 03:44:00,11.5,7.6,30.24,NNE,32,5.0,9.0,84,0.00,,,0.00,Wunderground v.1.15,2013-03-17 08:44:00,
2013-03-17 03:48:00,11.6,8.0,30.24,NE,37,4.0,9.0,85,0.00,,,0.00,Wunderground v.1.15,2013-03-17 08:48:00,
2013-03-17 03:49:00,11.6,8.0,30.24,NE,36,3.0,9.0,85,0.00,,,0.00,Wunderground v.1.15,2013-03-17 08:49:00,
2013-03-17 03:50:00,11.6,8.0,30.25,NE,51,2.0,5.0,85,0.00,,,0.00,Wunderground v.1.15,2013-03-17 08:50:00,
2013-03-17 03:53:00,11.6,8.0,30.24,NNE,26,6.0,9.0,85,0.00,,,0.00,Wunderground v.1.15,2013-03-17 08:53:00,
2013-03-17 03:54:00,11.5,7.9,30.24,NE,40,5.0,9.0,85,0.00,,,0.00,Wunderground v.1.15,2013-03-17 08:54:00,
2013-03-17 03:55:00,11.5,7.9,30.24,NE,38,5.0,9.0,85,0.00,,,0.00,Wunderground v.1.15,2013-03-17 08:55:00,
2013-03-17 03:58:00,11.4,7.8,30.24,NE,47,5.0,9.0,85,0.00,,,0.00,Wunderground v.1.15,2013-03-17 08:58:00,
2013-03-17 03:59:00,11.4,7.8,30.24,NE,40,8.0,10.0,85,0.00,,,0.00,Wunderground v.1.15,2013-03-17 08:59:00,
2013-03-17 04:00:00,11.4,7.5,30.24,NE,38,10.0,10.0,84,0.00,,,0.00,Wunderground v.1.15,2013-03-17 09:00:00,
2013-03-17 04:04:00,11.3,7.1,30.24,NE,42,9.0,11.0,83,0.00,,,0.00,Wunderground v.1.15,2013-03-17 09:04:00,
2013-03-17 04:05:00,11.3,6.9,30.24,NE,43,9.0,12.0,82,0.00,,,0.00,Wunderground v.1.15,2013-03-17 09:05:00,
2013-03-17 04:09:00,11.3,6.9,30.24,NNE,18,5.0,12.0,82,0.00,,,0.00,Wunderground v.1.15,2013-03-17 09:09:00,
2013-03-17 04:10:00,11.4,7.2,30.24,NE,43,9.0,9.0,83,0.00,,,0.00,Wunderground v.1.15,2013-03-17 09:10:00,
2013-03-17 04:14:00,11.4,7.0,30.23,NE,36,8.0,10.0,82,0.00,,,0.00,Wunderground v.1.15,2013-03-17 09:14:00,
2013-03-17 04:15:00,11.4,7.0,30.23,NNE,19,8.0,10.0,82,0.00,,,0.00,Wunderground v.1.15,2013-03-17 09:15:00,
2013-03-17 04:16:00,11.4,7.0,30.23,NE,42,8.0,10.0,82,0.00,,,0.00,Wunderground v.1.15,2013-03-17 09:16:00,
2013-03-17 04:20:00,11.4,7.0,30.23,NE,47,5.0,7.0,82,0.00,,,0.00,Wunderground v.1.15,2013-03-17 09:20:00,
2013-03-17 04:22:00,11.4,7.2,30.23,NNE,24,5.0,10.0,83,0.00,,,0.00,Wunderground v.1.15,2013-03-17 09:22:00,
2013-03-17 04:25:00,11.4,7.2,30.23,ENE,63,5.0,10.0,83,0.00,,,0.00,Wunderground v.1.15,2013-03-17 09:25:00,
2013-03-17 04:27:00,11.4,7.2,30.23,NE,41,4.0,10.0,83,0.00,,,0.00,Wunderground v.1.15,2013-03-17 09:27:00,
2013-03-17 04:30:00,11.4,7.2,30.23,NE,39,6.0,8.0,83,0.00,,,0.00,Wunderground v.1.15,2013-03-17 09:30:00,
2013-03-17 04:32:00,11.5,7.6,30.23,NE,37,9.0,10.0,84,0.00,,,0.00,Wunderground v.1.15,2013-03-17 09:32:00,
2013-03-17 04:35:00,11.5,7.6,30.23,NE,40,8.0,11.0,84,0.00,,,0.00,Wunderground v.1.15,2013-03-17 09:35:00,
2013-03-17 04:37:00,11.5,7.6,30.23,NE,42,4.0,11.0,84,0.00,,,0.00,Wunderground v.1.15,2013-03-17 09:37:00,
2013-03-17 04:40:00,11.5,7.3,30.23,NE,55,4.0,6.0,83,0.00,,,0.00,Wunderground v.1.15,2013-03-17 09:40:00,
2013-03-17 04:42:00,11.5,7.6,30.23,ENE,60,10.0,10.0,84,0.00,,,0.00,Wunderground v.1.15,2013-03-17 09:42:00,
2013-03-17 04:45:00,11.5,7.6,30.22,NE,49,3.0,10.0,84,0.00,,,0.00,Wunderground v.1.15,2013-03-17 09:45:00,
2013-03-17 04:47:00,11.4,7.5,30.23,NE,40,9.0,10.0,84,0.00,,,0.00,Wunderground v.1.15,2013-03-17 09:47:00,
2013-03-17 04:50:00,11.4,7.5,30.22,NE,36,10.0,10.0,84,0.00,,,0.00,Wunderground v.1.15,2013-03-17 09:50:00,
2013-03-17 04:52:00,11.4,7.5,30.23,NE,48,5.0,10.0,84,0.00,,,0.00,Wunderground v.1.15,2013-03-17 09:52:00,
2013-03-17 04:55:00,11.4,7.5,30.23,NE,37,5.0,11.0,84,0.00,,,0.00,Wunderground v.1.15,2013-03-17 09:55:00,
2013-03-17 04:56:00,11.4,7.5,30.23,NE,35,5.0,11.0,84,0.00,,,0.00,Wunderground v.1.15,2013-03-17 09:56:00,
2013-03-17 04:58:00,11.4,7.5,30.23,ENE,57,3.0,11.0,84,0.00,,,0.00,Wunderground v.1.15,2013-03-17 09:58:00,
2013-03-17 05:00:00,11.4,7.8,30.23,NE,44,5.0,8.0,85,0.00,,,0.00,Wunderground v.1.15,2013-03-17 10:00:00,
2013-03-17 05:01:00,11.4,7.8,30.23,NE,49,5.0,8.0,85,0.00,,,0.00,Wunderground v.1.15,2013-03-17 10:01:00,
2013-03-17 05:03:00,11.3,7.7,30.23,NE,46,6.0,8.0,85,0.00,,,0.00,Wunderground v.1.15,2013-03-17 10:03:00,
2013-03-17 05:06:00,11.3,7.7,30.23,NNE,30,6.0,10.0,85,0.00,,,0.00,Wunderground v.1.15,2013-03-17 10:06:00,
2013-03-17 05:07:00,11.2,7.6,30.23,NNE,32,8.0,10.0,85,0.00,,,0.00,Wunderground v.1.15,2013-03-17 10:07:00,
2013-03-17 05:08:00,11.2,7.6,30.23,NE,34,9.0,10.0,85,0.00,,,0.00,Wunderground v.1.15,2013-03-17 10:08:00,
2013-03-17 05:12:00,11.2,7.6,30.22,NE,42,4.0,8.0,85,0.00,,,0.00,Wunderground v.1.15,2013-03-17 10:12:00,
2013-03-17 05:13:00,11.3,7.7,30.22,NE,39,6.0,10.0,85,0.00,,,0.00,Wunderground v.1.15,2013-03-17 10:13:00,
2013-03-17 05:17:00,11.3,7.7,30.22,NE,43,6.0,11.0,85,0.00,,,0.00,Wunderground v.1.15,2013-03-17 10:17:00,
2013-03-17 05:18:00,11.4,7.8,30.22,NE,48,6.0,11.0,85,0.00,,,0.00,Wunderground v.1.15,2013-03-17 10:18:00,
2013-03-17 05:19:00,11.4,7.8,30.22,NE,42,5.0,11.0,85,0.00,,,0.00,Wunderground v.1.15,2013-03-17 10:19:00,
2013-03-17 05:22:00,11.4,7.5,30.22,NE,47,4.0,7.0,84,0.00,,,0.00,Wunderground v.1.15,2013-03-17 10:22:00,
2013-03-17 05:23:00,11.4,7.5,30.22,NE,51,4.0,7.0,84,0.00,,,0.00,Wunderground v.1.15,2013-03-17 10:23:00,
2013-03-17 05:24:00,11.4,7.8,30.22,NE,45,7.0,8.0,85,0.00,,,0.00,Wunderground v.1.15,2013-03-17 10:24:00,
2013-03-17 05:27:00,11.3,7.4,30.22,NE,46,6.0,10.0,84,0.00,,,0.00,Wunderground v.1.15,2013-03-17 10:27:00,
2013-03-17 05:28:00,11.3,7.4,30.22,NE,38,8.0,10.0,84,0.00,,,0.00,Wunderground v.1.15,2013-03-17 10:28:00,
2013-03-17 05:29:00,11.4,7.8,30.22,NE,39,7.0,10.0,85,0.00,,,0.00,Wunderground v.1.15,2013-03-17 10:29:00,
2013-03-17 05:33:00,11.4,7.8,30.22,NE,40,4.0,11.0,85,0.00,,,0.00,Wunderground v.1.15,2013-03-17 10:33:00,
2013-03-17 05:34:00,11.4,7.8,30.22,NNE,24,7.0,11.0,85,0.00,,,0.00,Wunderground v.1.15,2013-03-17 10:34:00,
2013-03-17 05:35:00,11.4,7.8,30.23,NNE,24,8.0,12.0,85,0.00,,,0.00,Wunderground v.1.15,2013-03-17 10:35:00,
2013-03-17 05:38:00,11.4,7.8,30.23,NNE,21,8.0,12.0,85,0.00,,,0.00,Wunderground v.1.15,2013-03-17 10:38:00,
2013-03-17 05:40:00,11.4,7.8,30.23,NE,44,5.0,7.0,85,0.00,,,0.00,Wunderground v.1.15,2013-03-17 10:40:00,
2013-03-17 05:43:00,11.4,7.8,30.23,NE,54,5.0,10.0,85,0.00,,,0.00,Wunderground v.1.15,2013-03-17 10:43:00,
2013-03-17 05:45:00,11.4,7.8,30.23,NNE,25,9.0,11.0,85,0.00,,,0.00,Wunderground v.1.15,2013-03-17 10:45:00,
2013-03-17 05:48:00,11.4,7.8,30.22,NE,36,8.0,11.0,85,0.00,,,0.00,Wunderground v.1.15,2013-03-17 10:48:00,
2013-03-17 05:50:00,11.3,7.7,30.22,NE,47,5.0,6.0,85,0.00,,,0.00,Wunderground v.1.15,2013-03-17 10:50:00,
2013-03-17 05:53:00,11.3,7.4,30.22,ENE,60,10.0,12.0,84,0.00,,,0.00,Wunderground v.1.15,2013-03-17 10:53:00,
2013-03-17 05:55:00,11.3,7.4,30.22,NE,40,8.0,12.0,84,0.00,,,0.00,Wunderground v.1.15,2013-03-17 10:55:00,
2013-03-17 05:58:00,11.3,7.4,30.22,NE,55,4.0,12.0,84,0.00,,,0.00,Wunderground v.1.15,2013-03-17 10:58:00,
2013-03-17 06:00:00,11.2,7.3,30.23,ENE,58,6.0,6.0,84,0.00,,,0.00,Wunderground v.1.15,2013-03-17 11:00:00,
2013-03-17 06:03:00,11.2,7.3,30.22,NE,51,7.0,11.0,84,0.00,,,0.00,Wunderground v.1.15,2013-03-17 11:03:00,
2013-03-17 06:04:00,11.2,7.3,30.22,NE,49,8.0,11.0,84,0.00,,,0.00,Wunderground v.1.15,2013-03-17 11:04:00,
2013-03-17 06:05:00,11.2,7.3,30.22,ENE,61,6.0,11.0,84,0.00,,,0.00,Wunderground v.1.15,2013-03-17 11:05:00,
2013-03-17 06:09:00,11.2,7.3,30.22,NE,48,8.0,11.0,84,0.00,,,0.00,Wunderground v.1.15,2013-03-17 11:09:00,
2013-03-17 06:10:00,11.2,7.3,30.22,NE,54,5.0,11.0,84,0.00,,,0.00,Wunderground v.1.15,2013-03-17 11:10:00,
2013-03-17 06:11:00,11.2,7.3,30.22,NE,55,7.0,11.0,84,0.00,,,0.00,Wunderground v.1.15,2013-03-17 11:11:00,
2013-03-17 06:14:00,11.2,7.3,30.22,NE,51,10.0,15.0,84,0.00,,,0.00,Wunderground v.1.15,2013-03-17 11:14:00,
2013-03-17 06:15:00,11.2,7.3,30.22,ENE,57,6.0,15.0,84,0.00,,,0.00,Wunderground v.1.15,2013-03-17 11:15:00,
2013-03-17 06:16:00,11.2,7.3,30.22,ENE,58,12.0,15.0,84,0.00,,,0.00,Wunderground v.1.15,2013-03-17 11:16:00,
2013-03-17 06:19:00,11.2,7.3,30.22,ENE,57,6.0,15.0,84,0.00,,,0.00,Wunderground v.1.15,2013-03-17 11:19:00,
2013-03-17 06:20:00,11.2,7.3,30.22,NE,51,5.0,8.0,84,0.00,,,0.00,Wunderground v.1.15,2013-03-17 11:20:00,
2013-03-17 06:21:00,11.2,7.3,30.22,ENE,61,11.0,11.0,84,0.00,,,0.00,Wunderground v.1.15,2013-03-17 11:21:00,
2013-03-17 06:24:00,11.2,7.3,30.22,NE,46,6.0,11.0,84,0.00,,,0.00,Wunderground v.1.15,2013-03-17 11:24:00,
2013-03-17 06:26:00,11.2,7.3,30.22,NE,55,4.0,11.0,84,0.00,,,0.00,Wunderground v.1.15,2013-03-17 11:26:00,
2013-03-17 06:27:00,11.2,7.3,30.22,NE,49,4.0,11.0,84,0.00,,,0.00,Wunderground v.1.15,2013-03-17 11:27:00,
2013-03-17 06:29:00,11.2,7.3,30.22,ENE,58,5.0,11.0,84,0.00,,,0.00,Wunderground v.1.15,2013-03-17 11:29:00,
2013-03-17 06:32:00,11.2,7.3,30.22,NE,56,11.0,12.0,84,0.00,,,0.00,Wunderground v.1.15,2013-03-17 11:32:00,
2013-03-17 06:35:00,11.2,7.3,30.23,ENE,65,10.0,12.0,84,0.00,,,0.00,Wunderground v.1.15,2013-03-17 11:35:00,
2013-03-17 06:37:00,11.2,7.3,30.23,ENE,59,8.0,12.0,84,0.00,,,0.00,Wunderground v.1.15,2013-03-17 11:37:00,
2013-03-17 06:40:00,11.3,7.4,30.23,ENE,71,8.0,8.0,84,0.00,,,0.00,Wunderground v.1.15,2013-03-17 11:40:00,
2013-03-17 06:42:00,11.3,7.4,30.23,ENE,59,8.0,11.0,84,0.00,,,0.00,Wunderground v.1.15,2013-03-17 11:42:00,
2013-03-17 06:45:00,11.3,7.4,30.23,NE,54,6.0,11.0,84,0.00,,,0.00,Wunderground v.1.15,2013-03-17 11:45:00,
2013-03-17 06:47:00,11.3,7.4,30.23,NE,54,6.0,11.0,84,0.00,,,0.00,Wunderground v.1.15,2013-03-17 11:47:00,
2013-03-17 06:48:00,11.3,7.4,30.23,NE,54,6.0,11.0,84,0.00,,,0.00,Wunderground v.1.15,2013-03-17 11:48:00,
2013-03-17 06:50:00,11.4,7.5,30.23,ENE,58,10.0,11.0,84,0.00,,,0.00,Wunderground v.1.15,2013-03-17 11:50:00,
2013-03-17 06:52:00,11.4,7.5,30.22,ENE,63,12.0,13.0,84,0.00,,,0.00,Wunderground v.1.15,2013-03-17 11:52:00,
2013-03-17 06:53:00,11.4,7.5,30.22,ENE,63,13.0,13.0,84,0.00,,,0.00,Wunderground v.1.15,2013-03-17 11:53:00,
2013-03-17 06:55:00,11.4,7.5,30.22,NE,55,7.0,13.0,84,0.00,,,0.00,Wunderground v.1.15,2013-03-17 11:55:00,
2013-03-17 06:58:00,11.4,7.5,30.22,NE,55,8.0,13.0,84,0.00,,,0.00,Wunderground v.1.15,2013-03-17 11:58:00,
2013-03-17 07:00:00,11.4,7.5,30.22,ENE,65,11.0,12.0,84,0.00,,,0.00,Wunderground v.1.15,2013-03-17 12:00:00,
2013-03-17 07:03:00,11.4,7.5,30.22,ENE,78,10.0,13.0,84,0.00,,,0.00,Wunderground v.1.15,2013-03-17 12:03:00,
2013-03-17 07:05:00,11.5,7.6,30.22,ENE,72,10.0,13.0,84,0.00,,,0.00,Wunderground v.1.15,2013-03-17 12:05:00,
2013-03-17 07:08:00,11.6,8.0,30.22,ENE,67,12.0,13.0,85,0.00,,,0.00,Wunderground v.1.15,2013-03-17 12:08:00,
2013-03-17 07:10:00,11.6,7.7,30.21,ENE,74,11.0,13.0,84,0.00,,,0.00,Wunderground v.1.15,2013-03-17 12:10:00,
2013-03-17 07:13:00,11.6,7.7,30.21,ENE,67,13.0,14.0,84,0.00,,,0.00,Wunderground v.1.15,2013-03-17 12:13:00,
2013-03-17 07:14:00,11.5,7.6,30.21,ENE,65,12.0,14.0,84,0.00,,,0.00,Wunderground v.1.15,2013-03-17 12:14:00,
2013-03-17 07:15:00,11.5,7.6,30.21,ENE,74,14.0,14.0,84,0.00,,,0.00,Wunderground v.1.15,2013-03-17 12:15:00,
2013-03-17 07:18:00,11.6,7.7,30.22,ENE,73,10.0,14.0,84,0.00,,,0.00,Wunderground v.1.15,2013-03-17 12:18:00,
2013-03-17 07:19:00,11.5,7.6,30.22,ENE,76,12.0,14.0,84,0.00,,,0.00,Wunderground v.1.15,2013-03-17 12:19:00,
2013-03-17 07:20:00,11.6,7.7,30.22,ENE,69,12.0,14.0,84,0.00,,,0.00,Wunderground v.1.15,2013-03-17 12:20:00,
2013-03-17 07:24:00,11.5,7.3,30.22,ENE,65,10.0,14.0,83,0.00,,,0.00,Wunderground v.1.15,2013-03-17 12:24:00,
2013-03-17 07:25:00,11.5,7.3,30.22,East,80,12.0,14.0,83,0.00,,,0.00,Wunderground v.1.15,2013-03-17 12:25:00,
2013-03-17 07:27:00,11.5,7.3,30.22,ENE,70,12.0,14.0,83,0.00,,,0.00,Wunderground v.1.15,2013-03-17 12:27:00,
2013-03-17 07:29:00,11.5,7.3,30.22,ENE,76,11.0,14.0,83,0.00,,,0.00,Wunderground v.1.15,2013-03-17 12:29:00,
2013-03-17 07:32:00,11.6,7.4,30.21,East,84,10.0,13.0,83,0.00,,,0.00,Wunderground v.1.15,2013-03-17 12:32:00,
2013-03-17 07:33:00,11.6,7.4,30.22,East,84,11.0,13.0,83,0.00,,,0.00,Wunderground v.1.15,2013-03-17 12:33:00,
2013-03-17 07:34:00,11.7,7.5,30.22,ENE,76,12.0,13.0,83,0.00,,,0.00,Wunderground v.1.15,2013-03-17 12:34:00,
2013-03-17 07:37:00,11.8,7.9,30.22,East,80,12.0,13.0,84,0.00,,,0.00,Wunderground v.1.15,2013-03-17 12:37:00,
2013-03-17 07:38:00,11.8,7.6,30.22,ENE,77,10.0,13.0,83,0.00,,,0.00,Wunderground v.1.15,2013-03-17 12:38:00,
2013-03-17 07:39:00,11.8,7.6,30.22,East,81,10.0,13.0,83,0.00,,,0.00,Wunderground v.1.15,2013-03-17 12:39:00,
2013-03-17 07:42:00,11.8,7.6,30.22,ENE,78,13.0,13.0,83,0.00,,,0.00,Wunderground v.1.15,2013-03-17 12:42:00,
2013-03-17 07:43:00,11.8,7.6,30.22,ENE,74,13.0,14.0,83,0.00,,,0.00,Wunderground v.1.15,2013-03-17 12:43:00,
2013-03-17 07:44:00,11.8,7.6,30.22,East,80,11.0,14.0,83,0.00,,,0.00,Wunderground v.1.15,2013-03-17 12:44:00,
2013-03-17 07:45:00,11.9,7.7,30.22,East,84,11.0,14.0,83,0.00,,,0.00,Wunderground v.1.15,2013-03-17 12:45:00,
2013-03-17 07:47:00,11.8,7.6,30.22,ENE,69,12.0,14.0,83,0.00,,,0.00,Wunderground v.1.15,2013-03-17 12:47:00,
2013-03-17 07:48:00,11.9,7.7,30.22,East,80,8.0,14.0,83,0.00,,,0.00,Wunderground v.1.15,2013-03-17 12:48:00,
2013-03-17 07:49:00,11.9,7.7,30.22,East,81,11.0,14.0,83,0.00,,,0.00,Wunderground v.1.15,2013-03-17 12:49:00,
2013-03-17 07:50:00,11.9,7.7,30.22,East,86,12.0,13.0,83,0.00,,,0.00,Wunderground v.1.15,2013-03-17 12:50:00,
2013-03-17 07:52:00,11.9,7.7,30.22,East,88,11.0,13.0,83,0.00,,,0.00,Wunderground v.1.15,2013-03-17 12:52:00,
2013-03-17 07:54:00,11.9,7.5,30.22,ENE,76,12.0,13.0,82,0.00,,,0.00,Wunderground v.1.15,2013-03-17 12:54:00,
2013-03-17 07:55:00,12.0,7.6,30.22,East,82,10.0,13.0,82,0.00,,,0.00,Wunderground v.1.15,2013-03-17 12:55:00,
2013-03-17 07:57:00,12.0,7.8,30.22,East,88,10.0,14.0,83,0.00,,,0.00,Wunderground v.1.15,2013-03-17 12:57:00,
2013-03-17 07:59:00,12.0,7.8,30.22,East,82,11.0,14.0,83,0.00,,,0.00,Wunderground v.1.15,2013-03-17 12:59:00,
2013-03-17 08:00:00,12.1,7.9,30.22,East,86,11.0,11.0,83,0.00,,,0.00,Wunderground v.1.15,2013-03-17 13:00:00,
2013-03-17 08:01:00,12.1,7.9,30.22,East,86,11.0,11.0,83,0.00,,,0.00,Wunderground v.1.15,2013-03-17 13:01:00,
2013-03-17 08:02:00,12.1,7.9,30.22,East,86,11.0,11.0,83,0.00,,,0.00,Wunderground v.1.15,2013-03-17 13:02:00,
2013-03-17 08:04:00,12.1,7.9,30.22,East,86,11.0,11.0,83,0.00,,,0.00,Wunderground v.1.15,2013-03-17 13:04:00,
2013-03-17 08:05:00,12.1,7.9,30.22,East,86,11.0,11.0,83,0.00,,,0.00,Wunderground v.1.15,2013-03-17 13:05:00,
2013-03-17 08:07:00,12.1,7.9,30.22,East,86,11.0,11.0,83,0.00,,,0.00,Wunderground v.1.15,2013-03-17 13:07:00,
2013-03-17 08:09:00,12.3,8.1,30.22,East,82,10.0,12.0,83,0.00,,,0.00,Wunderground v.1.15,2013-03-17 13:09:00,
2013-03-17 08:10:00,12.5,8.3,30.22,East,92,11.0,11.0,83,0.00,,,0.00,Wunderground v.1.15,2013-03-17 13:10:00,
2013-03-17 08:12:00,12.5,8.3,30.22,East,92,11.0,13.0,83,0.00,,,0.00,Wunderground v.1.15,2013-03-17 13:12:00,
2013-03-17 08:14:00,12.5,8.0,30.22,East,90,9.0,13.0,82,0.00,,,0.00,Wunderground v.1.15,2013-03-17 13:14:00,
2013-03-17 08:15:00,12.5,8.0,30.22,East,80,10.0,13.0,82,0.00,,,0.00,Wunderground v.1.15,2013-03-17 13:15:00,
2013-03-17 08:19:00,12.7,8.2,30.22,East,88,10.0,14.0,82,0.00,,,0.00,Wunderground v.1.15,2013-03-17 13:19:00,
2013-03-17 08:20:00,12.7,8.2,30.22,East,86,11.0,11.0,82,0.00,,,0.00,Wunderground v.1.15,2013-03-17 13:20:00,
2013-03-17 08:24:00,13.0,8.3,30.22,ESE,111,13.0,13.0,81,0.00,,,0.00,Wunderground v.1.15,2013-03-17 13:24:00,
2013-03-17 08:25:00,13.0,8.3,30.22,ESE,113,12.0,16.0,81,0.00,,,0.00,Wunderground v.1.15,2013-03-17 13:25:00,
2013-03-17 08:29:00,13.2,8.7,30.22,East,89,11.0,16.0,82,0.00,,,0.00,Wunderground v.1.15,2013-03-17 13:29:00,
2013-03-17 08:30:00,13.3,8.6,30.21,East,87,10.0,12.0,81,0.00,,,0.00,Wunderground v.1.15,2013-03-17 13:30:00,
2013-03-17 08:31:00,13.3,8.6,30.21,East,100,11.0,12.0,81,0.00,,,0.00,Wunderground v.1.15,2013-03-17 13:31:00,
2013-03-17 08:34:00,13.3,8.6,30.22,East,90,11.0,14.0,81,0.00,,,0.00,Wunderground v.1.15,2013-03-17 13:34:00,
2013-03-17 08:36:00,13.3,8.6,30.22,East,86,8.0,15.0,81,0.00,,,0.00,Wunderground v.1.15,2013-03-17 13:36:00,
2013-03-17 08:39:00,13.7,9.2,30.22,ESE,103,12.0,16.0,82,0.00,,,0.00,Wunderground v.1.15,2013-03-17 13:39:00,
2013-03-17 08:41:00,13.7,9.2,30.22,ESE,110,12.0,13.0,82,0.00,,,0.00,Wunderground v.1.15,2013-03-17 13:41:00,
2013-03-17 08:42:00,13.7,9.2,30.21,ESE,110,12.0,13.0,82,0.00,,,0.00,Wunderground v.1.15,2013-03-17 13:42:00,
2013-03-17 08:44:00,13.7,9.2,30.21,ESE,110,12.0,13.0,82,0.00,,,0.00,Wunderground v.1.15,2013-03-17 13:44:00,
2013-03-17 08:46:00,13.7,9.2,30.21,ESE,103,13.0,15.0,82,0.00,,,0.00,Wunderground v.1.15,2013-03-17 13:46:00,
2013-03-17 08:47:00,13.7,9.0,30.22,ESE,107,12.0,15.0,81,0.00,,,0.00,Wunderground v.1.15,2013-03-17 13:47:00,
2013-03-17 08:50:00,13.7,9.0,30.21,ESE,103,11.0,13.0,81,0.00,,,0.00,Wunderground v.1.15,2013-03-17 13:50:00,
2013-03-17 08:52:00,13.9,9.4,30.21,ESE,117,9.0,13.0,82,0.00,,,0.00,Wunderground v.1.15,2013-03-17 13:52:00,
2013-03-17 08:53:00,14.1,9.6,30.21,ESE,111,13.0,13.0,82,0.00,,,0.00,Wunderground v.1.15,2013-03-17 13:53:00,
2013-03-17 08:55:00,14.3,9.8,30.22,East,94,15.0,15.0,82,0.00,,,0.00,Wunderground v.1.15,2013-03-17 13:55:00,
2013-03-17 08:57:00,14.4,9.6,30.21,SE,125,11.0,15.0,81,0.00,,,0.00,Wunderground v.1.15,2013-03-17 13:57:00,
2013-03-17 08:58:00,14.4,9.6,30.21,ESE,112,9.0,15.0,81,0.00,,,0.00,Wunderground v.1.15,2013-03-17 13:58:00,
2013-03-17 09:00:00,14.4,9.6,30.22,East,100,11.0,11.0,81,0.00,,,0.00,Wunderground v.1.15,2013-03-17 14:00:00,
2013-03-17 09:02:00,14.3,9.3,30.22,East,88,10.0,15.0,80,0.00,,,0.00,Wunderground v.1.15,2013-03-17 14:02:00,
2013-03-17 09:03:00,14.3,9.5,30.22,ESE,115,13.0,15.0,81,0.00,,,0.00,Wunderground v.1.15,2013-03-17 14:03:00,
2013-03-17 09:05:00,14.4,9.9,30.22,ESE,109,12.0,15.0,82,0.00,,,0.00,Wunderground v.1.15,2013-03-17 14:05:00,
2013-03-17 09:07:00,14.7,9.9,30.22,SE,126,8.0,15.0,81,0.00,,,0.00,Wunderground v.1.15,2013-03-17 14:07:00,
2013-03-17 09:08:00,14.7,9.6,30.22,ESE,109,9.0,15.0,80,0.00,,,0.00,Wunderground v.1.15,2013-03-17 14:08:00,
2013-03-17 09:09:00,14.7,9.6,30.22,ESE,105,13.0,15.0,80,0.00,,,0.00,Wunderground v.1.15,2013-03-17 14:09:00,
2013-03-17 09:10:00,14.7,9.6,30.22,ESE,111,12.0,12.0,80,0.00,,,0.00,Wunderground v.1.15,2013-03-17 14:10:00,
2013-03-17 09:13:00,14.8,9.7,30.22,ESE,105,12.0,18.0,80,0.00,,,0.00,Wunderground v.1.15,2013-03-17 14:13:00,
2013-03-17 09:14:00,14.8,9.7,30.22,ESE,105,13.0,18.0,80,0.00,,,0.00,Wunderground v.1.15,2013-03-17 14:14:00,
2013-03-17 09:15:00,14.9,10.1,30.22,ESE,123,9.0,18.0,81,0.00,,,0.00,Wunderground v.1.15,2013-03-17 14:15:00,
2013-03-17 09:18:00,15.2,10.4,30.22,East,95,14.0,18.0,81,0.00,,,0.00,Wunderground v.1.15,2013-03-17 14:18:00,
2013-03-17 09:19:00,15.2,10.4,30.22,East,101,11.0,18.0,81,0.00,,,0.00,Wunderground v.1.15,2013-03-17 14:19:00,
2013-03-17 09:21:00,15.4,10.6,30.22,ESE,115,11.0,13.0,81,0.00,,,0.00,Wunderground v.1.15,2013-03-17 14:21:00,
2013-03-17 09:24:00,15.8,11.0,30.22,ESE,109,13.0,13.0,81,0.00,,,0.00,Wunderground v.1.15,2013-03-17 14:24:00,
2013-03-17 09:27:00,15.9,10.5,30.22,SE,130,7.0,14.0,79,0.00,,,0.00,Wunderground v.1.15,2013-03-17 14:27:00,
2013-03-17 09:29:00,16.0,10.6,30.22,SE,128,6.0,14.0,79,0.00,,,0.00,Wunderground v.1.15,2013-03-17 14:29:00,
2013-03-17 09:32:00,16.1,10.7,30.22,ESE,109,13.0,14.0,79,0.00,,,0.00,Wunderground v.1.15,2013-03-17 14:32:00,
2013-03-17 09:34:00,16.2,10.8,30.22,ESE,111,9.0,14.0,79,0.00,,,0.00,Wunderground v.1.15,2013-03-17 14:34:00,
2013-03-17 09:35:00,16.3,11.2,30.22,East,88,12.0,14.0,80,0.00,,,0.00,Wunderground v.1.15,2013-03-17 14:35:00,
2013-03-17 09:37:00,16.5,11.1,30.22,ESE,108,12.0,15.0,79,0.00,,,0.00,Wunderground v.1.15,2013-03-17 14:37:00,
2013-03-17 09:39:00,16.6,11.2,30.22,ESE,107,11.0,18.0,79,0.00,,,0.00,Wunderground v.1.15,2013-03-17 14:39:00,
2013-03-17 09:40:00,16.6,11.2,30.22,ESE,107,15.0,15.0,79,0.00,,,0.00,Wunderground v.1.15,2013-03-17 14:40:00,
2013-03-17 09:42:00,16.6,10.9,30.21,ESE,108,14.0,15.0,78,0.00,,,0.00,Wunderground v.1.15,2013-03-17 14:42:00,
2013-03-17 09:44:00,16.6,10.9,30.21,ESE,117,9.0,15.0,78,0.00,,,0.00,Wunderground v.1.15,2013-03-17 14:44:00,
2013-03-17 09:45:00,16.5,10.5,30.21,ESE,117,12.0,15.0,77,0.00,,,0.00,Wunderground v.1.15,2013-03-17 14:45:00,
2013-03-17 09:47:00,16.5,10.5,30.21,ESE,121,15.0,15.0,77,0.00,,,0.00,Wunderground v.1.15,2013-03-17 14:47:00,
2013-03-17 09:50:00,16.7,10.7,30.21,ESE,119,9.0,12.0,77,0.00,,,0.00,Wunderground v.1.15,2013-03-17 14:50:00,
2013-03-17 09:52:00,16.9,11.2,30.20,SE,124,12.0,13.0,78,0.00,,,0.00,Wunderground v.1.15,2013-03-17 14:52:00,
2013-03-17 09:55:00,17.1,11.4,30.20,ESE,123,11.0,13.0,78,0.00,,,0.00,Wunderground v.1.15,2013-03-17 14:55:00,
2013-03-17 09:56:00,17.3,11.6,30.20,SE,125,11.0,13.0,78,0.00,,,0.00,Wunderground v.1.15,2013-03-17 14:56:00,
2013-03-17 09:57:00,17.3,11.3,30.20,ESE,110,9.0,13.0,77,0.00,,,0.00,Wunderground v.1.15,2013-03-17 14:57:00,
2013-03-17 10:00:00,17.4,11.4,30.20,ESE,123,7.0,11.0,77,0.00,,,0.00,Wunderground v.1.15,2013-03-17 15:00:00,
2013-03-17 10:02:00,17.7,12.0,30.20,ESE,110,12.0,14.0,78,0.00,,,0.00,Wunderground v.1.15,2013-03-17 15:02:00,
2013-03-17 10:05:00,17.9,11.9,30.20,SE,136,9.0,18.0,77,0.00,,,0.00,Wunderground v.1.15,2013-03-17 15:05:00,
2013-03-17 10:06:00,17.9,11.9,30.20,East,100,11.0,18.0,77,0.00,,,0.00,Wunderground v.1.15,2013-03-17 15:06:00,
2013-03-17 10:07:00,17.8,11.8,30.20,ESE,111,9.0,18.0,77,0.00,,,0.00,Wunderground v.1.15,2013-03-17 15:07:00,
2013-03-17 10:10:00,17.9,11.9,30.20,ESE,105,12.0,12.0,77,0.00,,,0.00,Wunderground v.1.15,2013-03-17 15:10:00,
2013-03-17 10:12:00,18.0,12.3,30.20,ESE,105,14.0,16.0,78,0.00,,,0.00,Wunderground v.1.15,2013-03-17 15:12:00,
2013-03-17 10:13:00,17.9,12.2,30.20,ESE,113,13.0,19.0,78,0.00,,,0.00,Wunderground v.1.15,2013-03-17 15:13:00,
2013-03-17 10:15:00,17.8,11.8,30.20,ESE,110,12.0,19.0,77,0.00,,,0.00,Wunderground v.1.15,2013-03-17 15:15:00,
2013-03-17 10:17:00,17.9,12.2,30.20,ESE,121,11.0,19.0,78,0.00,,,0.00,Wunderground v.1.15,2013-03-17 15:17:00,
2013-03-17 10:18:00,17.9,12.2,30.20,SE,130,13.0,19.0,78,0.00,,,0.00,Wunderground v.1.15,2013-03-17 15:18:00,
2013-03-17 10:20:00,17.7,11.7,30.20,ESE,123,11.0,13.0,77,0.00,,,0.00,Wunderground v.1.15,2013-03-17 15:20:00,
2013-03-17 10:22:00,17.7,12.0,30.20,SE,128,6.0,14.0,78,0.00,,,0.00,Wunderground v.1.15,2013-03-17 15:22:00,
2013-03-17 10:23:00,17.7,12.0,30.20,ESE,110,13.0,14.0,78,0.00,,,0.00,Wunderground v.1.15,2013-03-17 15:23:00,
2013-03-17 10:25:00,17.7,11.7,30.20,ESE,110,13.0,16.0,77,0.00,,,0.00,Wunderground v.1.15,2013-03-17 15:25:00,
2013-03-17 10:27:00,17.9,12.2,30.20,ESE,112,9.0,16.0,78,0.00,,,0.00,Wunderground v.1.15,2013-03-17 15:27:00,
2013-03-17 10:28:00,18.0,12.6,30.20,ESE,113,11.0,16.0,79,0.00,,,0.00,Wunderground v.1.15,2013-03-17 15:28:00,
2013-03-17 10:31:00,18.5,13.1,30.19,ESE,122,11.0,13.0,79,0.00,,,0.00,Wunderground v.1.15,2013-03-17 15:31:00,
2013-03-17 10:32:00,18.6,13.5,30.19,ESE,119,8.0,13.0,80,0.00,,,0.00,Wunderground v.1.15,2013-03-17 15:32:00,
2013-03-17 10:34:00,18.6,12.9,30.19,ESE,109,9.0,13.0,78,0.00,,,0.00,Wunderground v.1.15,2013-03-17 15:34:00,
2013-03-17 10:37:00,18.6,12.6,30.19,SE,126,7.0,13.0,77,0.00,,,0.00,Wunderground v.1.15,2013-03-17 15:37:00,
2013-03-17 10:38:00,18.5,12.5,30.20,ESE,112,11.0,13.0,77,0.00,,,0.00,Wunderground v.1.15,2013-03-17 15:38:00,
2013-03-17 10:39:00,18.5,12.5,30.20,ESE,119,11.0,13.0,77,0.00,,,0.00,Wunderground v.1.15,2013-03-17 15:39:00,
2013-03-17 10:42:00,18.7,12.7,30.20,SE,134,7.0,12.0,77,0.00,,,0.00,Wunderground v.1.15,2013-03-17 15:42:00,
2013-03-17 10:43:00,18.9,13.5,30.20,SE,142,11.0,14.0,79,0.00,,,0.00,Wunderground v.1.15,2013-03-17 15:43:00,
2013-03-17 10:44:00,19.0,13.6,30.20,SE,140,10.0,14.0,79,0.00,,,0.00,Wunderground v.1.15,2013-03-17 15:44:00,
2013-03-17 10:47:00,19.1,13.1,30.19,SE,144,11.0,14.0,77,0.00,,,0.00,Wunderground v.1.15,2013-03-17 15:47:00,
2013-03-17 10:48:00,19.3,13.6,30.19,SE,134,8.0,14.0,78,0.00,,,0.00,Wunderground v.1.15,2013-03-17 15:48:00,
2013-03-17 10:49:00,19.3,13.6,30.19,SE,136,9.0,14.0,78,0.00,,,0.00,Wunderground v.1.15,2013-03-17 15:49:00,
2013-03-17 10:50:00,19.3,13.6,30.19,SE,134,8.0,10.0,78,0.00,,,0.00,Wunderground v.1.15,2013-03-17 15:50:00,
2013-03-17 10:52:00,19.5,13.8,30.18,ESE,116,11.0,11.0,78,0.00,,,0.00,Wunderground v.1.15,2013-03-17 15:52:00,
2013-03-17 10:54:00,19.7,14.0,30.18,ESE,117,9.0,16.0,78,0.00,,,0.00,Wunderground v.1.15,2013-03-17 15:54:00,
2013-03-17 10:55:00,19.6,13.3,30.19,ESE,115,9.0,16.0,76,0.00,,,0.00,Wunderground v.1.15,2013-03-17 15:55:00,
2013-03-17 10:57:00,19.5,13.2,30.19,SE,125,11.0,16.0,76,0.00,,,0.00,Wunderground v.1.15,2013-03-17 15:57:00,
2013-03-17 10:59:00,19.6,13.3,30.19,ESE,115,7.0,16.0,76,0.00,,,0.00,Wunderground v.1.15,2013-03-17 15:59:00,
2013-03-17 11:01:00,19.5,12.9,30.19,SE,131,9.0,10.0,75,0.00,,,0.00,Wunderground v.1.15,2013-03-17 16:01:00,
2013-03-17 11:03:00,19.6,13.6,30.19,ESE,114,9.0,14.0,77,0.00,,,0.00,Wunderground v.1.15,2013-03-17 16:03:00,
2013-03-17 11:04:00,19.6,13.3,30.19,ESE,121,13.0,14.0,76,0.00,,,0.00,Wunderground v.1.15,2013-03-17 16:04:00,
2013-03-17 11:05:00,19.7,13.4,30.19,ESE,122,11.0,14.0,76,0.00,,,0.00,Wunderground v.1.15,2013-03-17 16:05:00,
2013-03-17 11:06:00,19.7,13.4,30.19,SE,132,7.0,14.0,76,0.00,,,0.00,Wunderground v.1.15,2013-03-17 16:06:00,
2013-03-17 11:08:00,19.9,14.1,30.19,SE,136,9.0,14.0,78,0.00,,,0.00,Wunderground v.1.15,2013-03-17 16:08:00,
2013-03-17 11:09:00,20.2,14.4,30.19,SSE,148,11.0,14.0,78,0.00,,,0.00,Wunderground v.1.15,2013-03-17 16:09:00,
2013-03-17 11:10:00,20.4,14.6,30.19,SE,126,12.0,13.0,78,0.00,,,0.00,Wunderground v.1.15,2013-03-17 16:10:00,
2013-03-17 11:13:00,20.6,14.5,30.18,ESE,105,11.0,14.0,77,0.00,,,0.00,Wunderground v.1.15,2013-03-17 16:13:00,
2013-03-17 11:15:00,20.7,14.3,30.18,SE,131,9.0,15.0,76,0.00,,,0.00,Wunderground v.1.15,2013-03-17 16:15:00,
2013-03-17 11:18:00,20.9,14.5,30.18,ESE,118,6.0,15.0,76,0.00,,,0.00,Wunderground v.1.15,2013-03-17 16:18:00,
2013-03-17 11:20:00,21.1,15.0,30.18,SE,136,9.0,11.0,77,0.00,,,0.00,Wunderground v.1.15,2013-03-17 16:20:00,
2013-03-17 11:23:00,21.1,14.4,30.18,SE,128,8.0,11.0,75,0.00,,,0.00,Wunderground v.1.15,2013-03-17 16:23:00,
2013-03-17 11:25:00,21.3,15.2,30.18,SE,128,11.0,14.0,77,0.00,,,0.00,Wunderground v.1.15,2013-03-17 16:25:00,
2013-03-17 11:26:00,21.4,15.3,30.18,SE,131,11.0,14.0,77,0.00,,,0.00,Wunderground v.1.15,2013-03-17 16:26:00,
2013-03-17 11:28:00,21.6,15.2,30.18,SE,136,8.0,14.0,76,0.00,,,0.00,Wunderground v.1.15,2013-03-17 16:28:00,
2013-03-17 11:30:00,21.6,15.2,30.18,ESE,120,9.0,11.0,76,0.00,,,0.00,Wunderground v.1.15,2013-03-17 16:30:00,
2013-03-17 11:31:00,21.6,15.2,30.18,SE,135,7.0,11.0,76,0.00,,,0.00,Wunderground v.1.15,2013-03-17 16:31:00,
2013-03-17 11:33:00,21.4,14.7,30.17,SE,136,9.0,12.0,75,0.00,,,0.00,Wunderground v.1.15,2013-03-17 16:33:00,
2013-03-17 11:35:00,21.5,15.1,30.17,SE,133,8.0,12.0,76,0.00,,,0.00,Wunderground v.1.15,2013-03-17 16:35:00,
2013-03-17 11:37:00,21.6,15.2,30.17,ESE,117,9.0,12.0,76,0.00,,,0.00,Wunderground v.1.15,2013-03-17 16:37:00,
2013-03-17 11:38:00,21.7,15.3,30.17,SE,134,14.0,15.0,76,0.00,,,0.00,Wunderground v.1.15,2013-03-17 16:38:00,
2013-03-17 11:40:00,21.7,15.3,30.17,SE,131,11.0,11.0,76,0.00,,,0.00,Wunderground v.1.15,2013-03-17 16:40:00,
2013-03-17 11:41:00,21.8,15.4,30.17,ESE,121,7.0,12.0,76,0.00,,,0.00,Wunderground v.1.15,2013-03-17 16:41:00,
2013-03-17 11:42:00,21.8,15.1,30.17,ESE,109,11.0,12.0,75,0.00,,,0.00,Wunderground v.1.15,2013-03-17 16:42:00,
2013-03-17 11:44:00,21.6,14.6,30.17,SE,130,9.0,14.0,74,0.00,,,0.00,Wunderground v.1.15,2013-03-17 16:44:00,
2013-03-17 11:45:00,21.6,14.9,30.16,SE,124,14.0,14.0,75,0.00,,,0.00,Wunderground v.1.15,2013-03-17 16:45:00,
2013-03-17 11:47:00,21.6,14.9,30.16,ESE,120,9.0,14.0,75,0.00,,,0.00,Wunderground v.1.15,2013-03-17 16:47:00,
2013-03-17 11:49:00,21.7,15.6,30.16,SE,124,9.0,14.0,77,0.00,,,0.00,Wunderground v.1.15,2013-03-17 16:49:00,
2013-03-17 11:50:00,21.8,15.1,30.16,SE,135,9.0,11.0,75,0.00,,,0.00,Wunderground v.1.15,2013-03-17 16:50:00,
2013-03-17 11:52:00,22.0,15.3,30.16,ESE,117,9.0,11.0,75,0.00,,,0.00,Wunderground v.1.15,2013-03-17 16:52:00,
2013-03-17 11:54:00,22.1,15.4,30.16,SE,130,9.0,12.0,75,0.00,,,0.00,Wunderground v.1.15,2013-03-17 16:54:00,
2013-03-17 11:56:00,22.1,15.4,30.15,ESE,122,7.0,13.0,75,0.00,,,0.00,Wunderground v.1.15,2013-03-17 16:56:00,
2013-03-17 11:58:00,22.2,15.5,30.15,SE,139,11.0,13.0,75,0.00,,,0.00,Wunderground v.1.15,2013-03-17 16:58:00,
2013-03-17 11:59:00,22.3,15.9,30.15,SE,138,8.0,13.0,76,0.00,,,0.00,Wunderground v.1.15,2013-03-17 16:59:00,
2013-03-17 12:02:00,22.4,16.0,30.15,ESE,120,8.0,12.0,76,0.00,,,0.00,Wunderground v.1.15,2013-03-17 17:02:00,
2013-03-17 12:03:00,22.5,16.1,30.15,ESE,123,7.0,12.0,76,0.00,,,0.00,Wunderground v.1.15,2013-03-17 17:03:00,
2013-03-17 12:04:00,22.6,16.5,30.14,SE,144,9.0,14.0,77,0.00,,,0.00,Wunderground v.1.15,2013-03-17 17:04:00,
2013-03-17 12:08:00,23.1,17.0,30.14,SE,137,9.0,14.0,77,0.00,,,0.00,Wunderground v.1.15,2013-03-17 17:08:00,
2013-03-17 12:09:00,23.2,16.4,30.14,SE,132,8.0,14.0,75,0.00,,,0.00,Wunderground v.1.15,2013-03-17 17:09:00,
2013-03-17 12:10:00,23.2,16.4,30.14,ESE,109,12.0,12.0,75,0.00,,,0.00,Wunderground v.1.15,2013-03-17 17:10:00,
2013-03-17 12:13:00,23.1,16.7,30.14,SE,131,11.0,16.0,76,0.00,,,0.00,Wunderground v.1.15,2013-03-17 17:13:00,
2013-03-17 12:14:00,23.0,16.3,30.14,SE,136,9.0,16.0,75,0.00,,,0.00,Wunderground v.1.15,2013-03-17 17:14:00,
2013-03-17 12:15:00,22.9,16.2,30.14,ESE,122,8.0,16.0,75,0.00,,,0.00,Wunderground v.1.15,2013-03-17 17:15:00,
2013-03-17 12:18:00,23.0,16.6,30.14,SE,125,9.0,16.0,76,0.00,,,0.00,Wunderground v.1.15,2013-03-17 17:18:00,
2013-03-17 12:19:00,23.0,16.3,30.14,SE,134,7.0,16.0,75,0.00,,,0.00,Wunderground v.1.15,2013-03-17 17:19:00,
2013-03-17 12:20:00,23.0,16.6,30.14,SE,130,7.0,10.0,76,0.00,,,0.00,Wunderground v.1.15,2013-03-17 17:20:00,
2013-03-17 12:23:00,23.4,17.6,30.13,SE,133,14.0,14.0,78,0.00,,,0.00,Wunderground v.1.15,2013-03-17 17:23:00,
2013-03-17 12:24:00,23.4,17.6,30.13,ESE,115,11.0,14.0,78,0.00,,,0.00,Wunderground v.1.15,2013-03-17 17:24:00,
2013-03-17 12:25:00,23.5,17.3,30.13,ESE,123,7.0,14.0,77,0.00,,,0.00,Wunderground v.1.15,2013-03-17 17:25:00,
2013-03-17 12:28:00,23.5,17.3,30.13,SE,128,6.0,16.0,77,0.00,,,0.00,Wunderground v.1.15,2013-03-17 17:28:00,
2013-03-17 12:29:00,23.5,17.6,30.13,ESE,115,9.0,16.0,78,0.00,,,0.00,Wunderground v.1.15,2013-03-17 17:29:00,
2013-03-17 12:31:00,23.6,17.7,30.13,SE,130,8.0,13.0,78,0.00,,,0.00,Wunderground v.1.15,2013-03-17 17:31:00,
2013-03-17 12:32:00,23.6,17.4,30.13,SE,127,12.0,13.0,77,0.00,,,0.00,Wunderground v.1.15,2013-03-17 17:32:00,
2013-03-17 12:34:00,23.7,17.5,30.13,SE,126,9.0,13.0,77,0.00,,,0.00,Wunderground v.1.15,2013-03-17 17:34:00,
2013-03-17 12:35:00,23.8,17.6,30.13,SE,138,10.0,17.0,77,0.00,,,0.00,Wunderground v.1.15,2013-03-17 17:35:00,
2013-03-17 12:37:00,23.7,17.2,30.12,SE,146,12.0,17.0,76,0.00,,,0.00,Wunderground v.1.15,2013-03-17 17:37:00,
2013-03-17 12:39:00,23.6,17.4,30.13,SE,126,8.0,17.0,77,0.00,,,0.00,Wunderground v.1.15,2013-03-17 17:39:00,
2013-03-17 12:40:00,23.6,17.4,30.13,ESE,123,9.0,11.0,77,0.00,,,0.00,Wunderground v.1.15,2013-03-17 17:40:00,
2013-03-17 12:42:00,23.6,17.1,30.12,SE,144,15.0,15.0,76,0.00,,,0.00,Wunderground v.1.15,2013-03-17 17:42:00,
2013-03-17 12:44:00,23.6,17.4,30.12,ESE,121,9.0,15.0,77,0.00,,,0.00,Wunderground v.1.15,2013-03-17 17:44:00,
2013-03-17 12:45:00,23.6,17.4,30.12,SSE,155,11.0,15.0,77,0.00,,,0.00,Wunderground v.1.15,2013-03-17 17:45:00,
2013-03-17 12:47:00,23.6,17.4,30.12,SSE,157,9.0,15.0,77,0.00,,,0.00,Wunderground v.1.15,2013-03-17 17:47:00,
2013-03-17 12:48:00,23.6,17.4,30.12,SSE,152,12.0,15.0,77,0.00,,,0.00,Wunderground v.1.15,2013-03-17 17:48:00,
2013-03-17 12:49:00,23.6,17.4,30.12,SSE,148,13.0,16.0,77,0.00,,,0.00,Wunderground v.1.15,2013-03-17 17:49:00,
2013-03-17 12:50:00,23.6,17.4,30.12,SE,140,6.0,11.0,77,0.00,,,0.00,Wunderground v.1.15,2013-03-17 17:50:00,
2013-03-17 12:52:00,23.8,17.9,30.12,SSE,147,9.0,11.0,78,0.00,,,0.00,Wunderground v.1.15,2013-03-17 17:52:00,
2013-03-17 12:53:00,23.8,17.9,30.12,SE,134,7.0,11.0,78,0.00,,,0.00,Wunderground v.1.15,2013-03-17 17:53:00,
2013-03-17 12:54:00,23.8,17.9,30.12,ESE,115,7.0,11.0,78,0.00,,,0.00,Wunderground v.1.15,2013-03-17 17:54:00,
2013-03-17 12:55:00,23.8,17.9,30.12,SE,127,7.0,12.0,78,0.00,,,0.00,Wunderground v.1.15,2013-03-17 17:55:00,
2013-03-17 12:58:00,23.8,17.9,30.12,SE,124,8.0,12.0,78,0.00,,,0.00,Wunderground v.1.15,2013-03-17 17:58:00,
2013-03-17 12:59:00,23.9,18.0,30.12,SE,142,9.0,12.0,78,0.00,,,0.00,Wunderground v.1.15,2013-03-17 17:59:00,
2013-03-17 13:00:00,24.0,18.4,30.12,SSE,155,12.0,12.0,79,0.00,,,0.00,Wunderground v.1.15,2013-03-17 18:00:00,
2013-03-17 13:03:00,24.1,18.5,30.12,SE,133,7.0,16.0,79,0.00,,,0.00,Wunderground v.1.15,2013-03-17 18:03:00,
2013-03-17 13:04:00,24.2,18.6,30.12,SE,144,13.0,16.0,79,0.00,,,0.00,Wunderground v.1.15,2013-03-17 18:04:00,
2013-03-17 13:05:00,24.1,18.2,30.11,SE,135,10.0,16.0,78,0.00,,,0.00,Wunderground v.1.15,2013-03-17 18:05:00,
2013-03-17 13:08:00,24.5,19.2,30.11,SE,137,10.0,16.0,80,0.00,,,0.00,Wunderground v.1.15,2013-03-17 18:08:00,
2013-03-17 13:09:00,24.6,19.3,30.11,SE,136,9.0,16.0,80,0.00,,,0.00,Wunderground v.1.15,2013-03-17 18:09:00,
2013-03-17 13:11:00,24.8,19.2,30.10,SE,130,9.0,11.0,79,0.00,,,0.00,Wunderground v.1.15,2013-03-17 18:11:00,
2013-03-17 13:13:00,24.9,19.0,30.10,SE,128,8.0,12.0,78,0.00,,,0.00,Wunderground v.1.15,2013-03-17 18:13:00,
2013-03-17 13:14:00,24.8,18.6,30.10,SE,132,7.0,12.0,77,0.00,,,0.00,Wunderground v.1.15,2013-03-17 18:14:00,
2013-03-17 13:15:00,24.8,18.6,30.10,SE,128,8.0,12.0,77,0.00,,,0.00,Wunderground v.1.15,2013-03-17 18:15:00,
2013-03-17 13:16:00,24.8,18.6,30.09,SE,144,7.0,12.0,77,0.00,,,0.00,Wunderground v.1.15,2013-03-17 18:16:00,
2013-03-17 13:18:00,24.7,18.5,30.09,ESE,114,12.0,12.0,77,0.00,,,0.00,Wunderground v.1.15,2013-03-17 18:18:00,
2013-03-17 13:20:00,24.7,18.5,30.09,SE,138,9.0,9.0,77,0.00,,,0.00,Wunderground v.1.15,2013-03-17 18:20:00,
2013-03-17 13:21:00,24.7,18.8,30.09,ESE,118,7.0,15.0,78,0.00,,,0.00,Wunderground v.1.15,2013-03-17 18:21:00,
2013-03-17 13:23:00,24.8,19.2,30.09,ESE,113,12.0,15.0,79,0.00,,,0.00,Wunderground v.1.15,2013-03-17 18:23:00,
2013-03-17 13:25:00,24.9,19.3,30.09,ESE,103,9.0,15.0,79,0.00,,,0.00,Wunderground v.1.15,2013-03-17 18:25:00,
2013-03-17 13:27:00,25.1,19.5,30.09,ESE,120,7.0,15.0,79,0.00,,,0.00,Wunderground v.1.15,2013-03-17 18:27:00,
2013-03-17 13:28:00,25.2,19.6,30.08,SE,132,8.0,15.0,79,0.00,,,0.00,Wunderground v.1.15,2013-03-17 18:28:00,
2013-03-17 13:30:00,25.2,19.3,30.08,ESE,116,9.0,11.0,78,0.00,,,0.00,Wunderground v.1.15,2013-03-17 18:30:00,
2013-03-17 13:31:00,25.2,19.6,30.08,ESE,117,9.0,11.0,79,0.00,,,0.00,Wunderground v.1.15,2013-03-17 18:31:00,
2013-03-17 13:32:00,25.3,19.7,30.08,ESE,119,8.0,11.0,79,0.00,,,0.00,Wunderground v.1.15,2013-03-17 18:32:00,
2013-03-17 13:34:00,25.4,19.2,30.08,ESE,109,12.0,13.0,77,0.00,,,0.00,Wunderground v.1.15,2013-03-17 18:34:00,
2013-03-17 13:35:00,25.5,19.6,30.07,SE,128,7.0,16.0,78,0.00,,,0.00,Wunderground v.1.15,2013-03-17 18:35:00,
2013-03-17 13:36:00,25.8,20.5,30.07,SE,130,8.0,16.0,80,0.00,,,0.00,Wunderground v.1.15,2013-03-17 18:36:00,
2013-03-17 13:37:00,26.0,20.7,30.07,ESE,120,11.0,16.0,80,0.00,,,0.00,Wunderground v.1.15,2013-03-17 18:37:00,
2013-03-17 13:39:00,26.5,20.9,30.07,ESE,115,13.0,16.0,79,0.00,,,0.00,Wunderground v.1.15,2013-03-17 18:39:00,
2013-03-17 13:40:00,26.4,20.5,30.07,ESE,108,12.0,12.0,78,0.00,,,0.00,Wunderground v.1.15,2013-03-17 18:40:00,
2013-03-17 13:41:00,26.5,20.6,30.07,ESE,117,9.0,12.0,78,0.00,,,0.00,Wunderground v.1.15,2013-03-17 18:41:00,
2013-03-17 13:42:00,26.5,20.6,30.07,SE,132,11.0,12.0,78,0.00,,,0.00,Wunderground v.1.15,2013-03-17 18:42:00,
2013-03-17 13:45:00,26.7,21.1,30.07,SE,126,9.0,15.0,79,0.00,,,0.00,Wunderground v.1.15,2013-03-17 18:45:00,
2013-03-17 13:46:00,26.5,20.3,30.07,SE,130,8.0,15.0,77,0.00,,,0.00,Wunderground v.1.15,2013-03-17 18:46:00,
2013-03-17 13:47:00,26.5,20.0,30.07,ESE,119,9.0,15.0,76,0.00,,,0.00,Wunderground v.1.15,2013-03-17 18:47:00,
2013-03-17 13:50:00,26.8,21.5,30.06,SE,132,9.0,11.0,80,0.00,,,0.00,Wunderground v.1.15,2013-03-17 18:50:00,
2013-03-17 13:52:00,27.0,21.1,30.06,SSE,154,14.0,14.0,78,0.00,,,0.00,Wunderground v.1.15,2013-03-17 18:52:00,
2013-03-17 13:55:00,27.3,21.6,30.06,ESE,105,11.0,14.0,79,0.00,,,0.00,Wunderground v.1.15,2013-03-17 18:55:00,
2013-03-17 13:57:00,27.0,20.7,30.06,SE,135,9.0,14.0,77,0.00,,,0.00,Wunderground v.1.15,2013-03-17 18:57:00,
2013-03-17 13:58:00,27.0,21.1,30.05,SE,144,11.0,14.0,78,0.00,,,0.00,Wunderground v.1.15,2013-03-17 18:58:00,
2013-03-17 14:00:00,27.4,22.3,30.05,ESE,120,12.0,13.0,81,0.00,,,0.00,Wunderground v.1.15,2013-03-17 19:00:00,
2013-03-17 14:02:00,27.5,21.8,30.05,SE,126,9.0,14.0,79,0.00,,,0.00,Wunderground v.1.15,2013-03-17 19:02:00,
2013-03-17 14:03:00,27.5,21.8,30.05,SSE,155,10.0,14.0,79,0.00,,,0.00,Wunderground v.1.15,2013-03-17 19:03:00,
2013-03-17 14:05:00,27.5,21.2,30.05,SE,144,11.0,17.0,77,0.00,,,0.00,Wunderground v.1.15,2013-03-17 19:05:00,
2013-03-17 14:08:00,27.8,22.1,30.05,SE,137,12.0,18.0,79,0.00,,,0.00,Wunderground v.1.15,2013-03-17 19:08:00,
2013-03-17 14:10:00,27.9,22.2,30.05,SSE,148,11.0,16.0,79,0.00,,,0.00,Wunderground v.1.15,2013-03-17 19:10:00,
2013-03-17 14:13:00,28.0,22.0,30.05,SE,138,14.0,19.0,78,0.00,,,0.00,Wunderground v.1.15,2013-03-17 19:13:00,
2013-03-17 14:14:00,27.9,21.9,30.05,SE,146,15.0,19.0,78,0.00,,,0.00,Wunderground v.1.15,2013-03-17 19:14:00,
2013-03-17 14:15:00,27.9,21.9,30.05,ESE,117,7.0,19.0,78,0.00,,,0.00,Wunderground v.1.15,2013-03-17 19:15:00,
2013-03-17 14:18:00,27.8,21.5,30.05,SE,132,11.0,19.0,77,0.00,,,0.00,Wunderground v.1.15,2013-03-17 19:18:00,
2013-03-17 14:19:00,27.8,22.4,30.05,ESE,119,8.0,19.0,80,0.00,,,0.00,Wunderground v.1.15,2013-03-17 19:19:00,
2013-03-17 14:21:00,27.9,22.2,30.05,SE,125,8.0,13.0,79,0.00,,,0.00,Wunderground v.1.15,2013-03-17 19:21:00,
2013-03-17 14:23:00,27.8,21.8,30.05,SE,130,9.0,13.0,78,0.00,,,0.00,Wunderground v.1.15,2013-03-17 19:23:00,
2013-03-17 14:24:00,27.8,21.5,30.05,SE,134,11.0,13.0,77,0.00,,,0.00,Wunderground v.1.15,2013-03-17 19:24:00,
2013-03-17 14:26:00,27.4,21.7,30.05,SE,136,10.0,13.0,79,0.00,,,0.00,Wunderground v.1.15,2013-03-17 19:26:00,
2013-03-17 14:28:00,27.6,22.5,30.05,SE,146,12.0,13.0,81,0.00,,,0.00,Wunderground v.1.15,2013-03-17 19:28:00,
2013-03-17 14:29:00,27.8,22.4,30.05,SE,140,13.0,18.0,80,0.00,,,0.00,Wunderground v.1.15,2013-03-17 19:29:00,
2013-03-17 14:31:00,27.7,22.0,30.05,ESE,118,9.0,15.0,79,0.00,,,0.00,Wunderground v.1.15,2013-03-17 19:31:00,
2013-03-17 14:33:00,27.8,22.1,30.05,ESE,117,7.0,15.0,79,0.00,,,0.00,Wunderground v.1.15,2013-03-17 19:33:00,
2013-03-17 14:34:00,27.8,21.8,30.05,SE,129,13.0,15.0,78,0.00,,,0.00,Wunderground v.1.15,2013-03-17 19:34:00,
2013-03-17 14:37:00,27.8,22.4,30.05,SE,134,11.0,15.0,80,0.00,,,0.00,Wunderground v.1.15,2013-03-17 19:37:00,
2013-03-17 14:38:00,27.4,21.7,30.05,SE,130,9.0,15.0,79,0.00,,,0.00,Wunderground v.1.15,2013-03-17 19:38:00,
2013-03-17 14:40:00,27.5,22.1,30.05,ESE,105,13.0,13.0,80,0.00,,,0.00,Wunderground v.1.15,2013-03-17 19:40:00,
2013-03-17 14:42:00,27.5,22.1,30.05,SSE,150,12.0,14.0,80,0.00,,,0.00,Wunderground v.1.15,2013-03-17 19:42:00,
2013-03-17 14:43:00,27.4,22.0,30.05,SE,134,9.0,15.0,80,0.00,,,0.00,Wunderground v.1.15,2013-03-17 19:43:00,
2013-03-17 14:47:00,27.6,22.5,30.05,SE,143,8.0,15.0,81,0.00,,,0.00,Wunderground v.1.15,2013-03-17 19:47:00,
2013-03-17 14:48:00,27.6,22.2,30.05,SE,143,13.0,17.0,80,0.00,,,0.00,Wunderground v.1.15,2013-03-17 19:48:00,
2013-03-17 14:50:00,27.5,22.1,30.05,SE,142,15.0,17.0,80,0.00,,,0.00,Wunderground v.1.15,2013-03-17 19:50:00,
2013-03-17 14:52:00,27.5,22.7,30.05,SSE,160,14.0,17.0,82,0.00,,,0.00,Wunderground v.1.15,2013-03-17 19:52:00,
2013-03-17 14:53:00,27.6,22.5,30.04,SSE,161,12.0,17.0,81,0.00,,,0.00,Wunderground v.1.15,2013-03-17 19:53:00,
2013-03-17 14:55:00,27.6,22.2,30.05,SSE,153,13.0,18.0,80,0.00,,,0.00,Wunderground v.1.15,2013-03-17 19:55:00,
2013-03-17 14:58:00,27.6,22.5,30.04,SE,138,10.0,18.0,81,0.00,,,0.00,Wunderground v.1.15,2013-03-17 19:58:00,
2013-03-17 14:59:00,27.7,22.6,30.04,SE,140,14.0,19.0,81,0.00,,,0.00,Wunderground v.1.15,2013-03-17 19:59:00,
2013-03-17 15:01:00,27.6,22.5,30.04,SE,131,11.0,13.0,81,0.00,,,0.00,Wunderground v.1.15,2013-03-17 20:01:00,
2013-03-17 15:03:00,27.8,22.7,30.04,ESE,117,11.0,13.0,81,0.00,,,0.00,Wunderground v.1.15,2013-03-17 20:03:00,
2013-03-17 15:04:00,27.9,22.8,30.04,SE,138,12.0,14.0,81,0.00,,,0.00,Wunderground v.1.15,2013-03-17 20:04:00,
2013-03-17 15:07:00,27.9,22.5,30.03,SE,138,14.0,19.0,80,0.00,,,0.00,Wunderground v.1.15,2013-03-17 20:07:00,
2013-03-17 15:08:00,27.8,22.4,30.03,SE,134,13.0,19.0,80,0.00,,,0.00,Wunderground v.1.15,2013-03-17 20:08:00,
2013-03-17 15:10:00,27.8,22.7,30.03,SE,144,15.0,16.0,81,0.00,,,0.00,Wunderground v.1.15,2013-03-17 20:10:00,
2013-03-17 15:12:00,28.0,23.2,30.03,SSE,154,15.0,17.0,82,0.00,,,0.00,Wunderground v.1.15,2013-03-17 20:12:00,
2013-03-17 15:13:00,28.0,23.2,30.03,SSE,148,17.0,17.0,82,0.00,,,0.00,Wunderground v.1.15,2013-03-17 20:13:00,
2013-03-17 15:15:00,28.0,23.2,30.03,SE,143,9.0,17.0,82,0.00,,,0.00,Wunderground v.1.15,2013-03-17 20:15:00,
2013-03-17 15:17:00,27.9,23.1,30.03,SE,144,14.0,17.0,82,0.00,,,0.00,Wunderground v.1.15,2013-03-17 20:17:00,
2013-03-17 15:18:00,27.9,23.1,30.03,ESE,117,8.0,17.0,82,0.00,,,0.00,Wunderground v.1.15,2013-03-17 20:18:00,
2013-03-17 15:20:00,27.8,23.0,30.03,SE,125,11.0,12.0,82,0.00,,,0.00,Wunderground v.1.15,2013-03-17 20:20:00,
2013-03-17 15:22:00,27.9,23.1,30.03,SE,126,11.0,12.0,82,0.00,,,0.00,Wunderground v.1.15,2013-03-17 20:22:00,
2013-03-17 15:23:00,28.0,23.2,30.03,SE,137,9.0,12.0,82,0.00,,,0.00,Wunderground v.1.15,2013-03-17 20:23:00,
2013-03-17 15:25:00,28.3,23.8,30.03,SSE,168,12.0,17.0,83,0.00,,,0.00,Wunderground v.1.15,2013-03-17 20:25:00,
2013-03-17 15:27:00,28.3,23.2,30.02,SE,146,10.0,17.0,81,0.00,,,0.00,Wunderground v.1.15,2013-03-17 20:27:00,
2013-03-17 15:28:00,28.3,23.5,30.02,ESE,117,9.0,17.0,82,0.00,,,0.00,Wunderground v.1.15,2013-03-17 20:28:00,
2013-03-17 15:29:00,28.3,23.5,30.02,ESE,106,8.0,17.0,82,0.00,,,0.00,Wunderground v.1.15,2013-03-17 20:29:00,
2013-03-17 15:30:00,28.1,23.0,30.02,SE,128,9.0,13.0,81,0.00,,,0.00,Wunderground v.1.15,2013-03-17 20:30:00,
2013-03-17 15:33:00,27.9,23.1,30.02,ESE,119,8.0,13.0,82,0.00,,,0.00,Wunderground v.1.15,2013-03-17 20:33:00,
2013-03-17 15:34:00,27.9,23.1,30.01,SE,125,9.0,13.0,82,0.00,,,0.00,Wunderground v.1.15,2013-03-17 20:34:00,
2013-03-17 15:35:00,27.9,23.1,30.01,SE,125,12.0,13.0,82,0.00,,,0.00,Wunderground v.1.15,2013-03-17 20:35:00,
2013-03-17 15:38:00,27.9,23.1,30.01,SE,129,11.0,13.0,82,0.00,,,0.00,Wunderground v.1.15,2013-03-17 20:38:00,
2013-03-17 15:39:00,27.9,23.1,30.01,ESE,111,9.0,13.0,82,0.00,,,0.00,Wunderground v.1.15,2013-03-17 20:39:00,
2013-03-17 15:40:00,27.9,23.4,30.01,SE,140,10.0,12.0,83,0.00,,,0.00,Wunderground v.1.15,2013-03-17 20:40:00,
2013-03-17 15:43:00,28.2,24.0,30.01,SE,131,11.0,15.0,84,0.00,,,0.00,Wunderground v.1.15,2013-03-17 20:43:00,
2013-03-17 15:44:00,28.3,24.1,30.01,SE,143,9.0,15.0,84,0.00,,,0.00,Wunderground v.1.15,2013-03-17 20:44:00,
2013-03-17 15:45:00,28.3,24.1,30.01,SE,138,12.0,15.0,84,0.00,,,0.00,Wunderground v.1.15,2013-03-17 20:45:00,
2013-03-17 15:47:00,28.5,23.7,30.00,ESE,123,8.0,15.0,82,0.00,,,0.00,Wunderground v.1.15,2013-03-17 20:47:00,
2013-03-17 15:48:00,28.4,23.6,30.00,ESE,123,9.0,15.0,82,0.00,,,0.00,Wunderground v.1.15,2013-03-17 20:48:00,
2013-03-17 15:49:00,28.4,23.6,30.00,SE,135,9.0,15.0,82,0.00,,,0.00,Wunderground v.1.15,2013-03-17 20:49:00,
2013-03-17 15:50:00,28.5,23.7,30.00,SE,131,8.0,12.0,82,0.00,,,0.00,Wunderground v.1.15,2013-03-17 20:50:00,
2013-03-17 15:52:00,28.9,24.7,30.00,ESE,118,9.0,13.0,84,0.00,,,0.00,Wunderground v.1.15,2013-03-17 20:52:00,
2013-03-17 15:53:00,29.0,24.5,30.00,SE,130,9.0,14.0,83,0.00,,,0.00,Wunderground v.1.15,2013-03-17 20:53:00,
2013-03-17 15:54:00,28.9,24.1,30.00,SE,128,12.0,14.0,82,0.00,,,0.00,Wunderground v.1.15,2013-03-17 20:54:00,
2013-03-17 15:55:00,28.8,24.0,30.00,SE,127,7.0,14.0,82,0.00,,,0.00,Wunderground v.1.15,2013-03-17 20:55:00,
2013-03-17 15:57:00,28.6,24.1,30.00,SE,145,10.0,14.0,83,0.00,,,0.00,Wunderground v.1.15,2013-03-17 20:57:00,
2013-03-17 15:58:00,28.6,24.1,30.00,SE,134,8.0,14.0,83,0.00,,,0.00,Wunderground v.1.15,2013-03-17 20:58:00,
2013-03-17 15:59:00,28.5,24.0,30.00,ESE,111,7.0,14.0,83,0.00,,,0.00,Wunderground v.1.15,2013-03-17 20:59:00,
2013-03-17 16:00:00,28.4,23.3,30.00,ESE,118,12.0,13.0,81,0.00,,,0.00,Wunderground v.1.15,2013-03-17 21:00:00,
2013-03-17 16:02:00,28.3,23.5,30.00,SSE,150,10.0,13.0,82,0.00,,,0.00,Wunderground v.1.15,2013-03-17 21:02:00,
2013-03-17 16:04:00,28.2,23.4,30.00,SE,140,9.0,15.0,82,0.00,,,0.00,Wunderground v.1.15,2013-03-17 21:04:00,
2013-03-17 16:05:00,28.2,23.7,30.00,ESE,119,9.0,15.0,83,0.00,,,0.00,Wunderground v.1.15,2013-03-17 21:05:00,
2013-03-17 16:08:00,28.1,23.3,30.00,SE,132,7.0,15.0,82,0.00,,,0.00,Wunderground v.1.15,2013-03-17 21:08:00,
2013-03-17 16:09:00,28.1,23.6,30.00,SSE,147,13.0,15.0,83,0.00,,,0.00,Wunderground v.1.15,2013-03-17 21:09:00,
2013-03-17 16:10:00,28.1,23.6,29.99,SE,130,11.0,12.0,83,0.00,,,0.00,Wunderground v.1.15,2013-03-17 21:10:00,
2013-03-17 16:13:00,28.0,23.2,29.99,SE,135,11.0,14.0,82,0.00,,,0.00,Wunderground v.1.15,2013-03-17 21:13:00,
2013-03-17 16:14:00,28.0,23.2,29.99,SE,129,12.0,14.0,82,0.00,,,0.00,Wunderground v.1.15,2013-03-17 21:14:00,
2013-03-17 16:15:00,28.0,23.5,29.99,SE,128,11.0,14.0,83,0.00,,,0.00,Wunderground v.1.15,2013-03-17 21:15:00,
2013-03-17 16:18:00,28.0,23.5,29.99,ESE,121,9.0,14.0,83,0.00,,,0.00,Wunderground v.1.15,2013-03-17 21:18:00,
2013-03-17 16:20:00,28.0,23.5,30.00,SE,134,11.0,11.0,83,0.00,,,0.00,Wunderground v.1.15,2013-03-17 21:20:00,
2013-03-17 16:24:00,28.5,24.3,30.00,ESE,109,11.0,14.0,84,0.00,,,0.00,Wunderground v.1.15,2013-03-17 21:24:00,
2013-03-17 16:25:00,28.6,24.1,29.99,ESE,110,11.0,14.0,83,0.00,,,0.00,Wunderground v.1.15,2013-03-17 21:25:00,
2013-03-17 16:27:00,28.5,24.0,29.99,SE,140,11.0,14.0,83,0.00,,,0.00,Wunderground v.1.15,2013-03-17 21:27:00,
2013-03-17 16:29:00,28.5,24.0,29.99,SE,131,8.0,14.0,83,0.00,,,0.00,Wunderground v.1.15,2013-03-17 21:29:00,
2013-03-17 16:30:00,28.5,24.0,29.99,SSE,155,12.0,12.0,83,0.00,,,0.00,Wunderground v.1.15,2013-03-17 21:30:00,
2013-03-17 16:31:00,28.5,24.3,29.99,SSE,148,14.0,14.0,84,0.00,,,0.00,Wunderground v.1.15,2013-03-17 21:31:00,
2013-03-17 16:32:00,28.4,24.2,29.99,ESE,119,9.0,14.0,84,0.00,,,0.00,Wunderground v.1.15,2013-03-17 21:32:00,
2013-03-17 16:35:00,28.3,23.8,29.99,ESE,113,9.0,14.0,83,0.00,,,0.00,Wunderground v.1.15,2013-03-17 21:35:00,
2013-03-17 16:37:00,28.3,24.1,29.99,SE,140,11.0,14.0,84,0.00,,,0.00,Wunderground v.1.15,2013-03-17 21:37:00,
2013-03-17 16:40:00,28.3,23.8,29.99,ESE,115,7.0,13.0,83,0.00,,,0.00,Wunderground v.1.15,2013-03-17 21:40:00,
2013-03-17 16:41:00,28.3,23.8,29.99,ESE,119,12.0,13.0,83,0.00,,,0.00,Wunderground v.1.15,2013-03-17 21:41:00,
2013-03-17 16:42:00,28.3,23.8,29.98,SE,128,13.0,13.0,83,0.00,,,0.00,Wunderground v.1.15,2013-03-17 21:42:00,
2013-03-17 16:43:00,28.3,23.8,29.98,ESE,113,8.0,13.0,83,0.00,,,0.00,Wunderground v.1.15,2013-03-17 21:43:00,
2013-03-17 16:45:00,28.3,23.8,29.98,SE,130,8.0,19.0,83,0.00,,,0.00,Wunderground v.1.15,2013-03-17 21:45:00,
2013-03-17 16:46:00,28.4,24.2,29.98,SE,128,7.0,19.0,84,0.00,,,0.00,Wunderground v.1.15,2013-03-17 21:46:00,
2013-03-17 16:47:00,28.5,24.3,29.98,SE,134,12.0,19.0,84,0.00,,,0.00,Wunderground v.1.15,2013-03-17 21:47:00,
2013-03-17 16:48:00,28.5,24.3,29.98,ESE,118,12.0,19.0,84,0.00,,,0.00,Wunderground v.1.15,2013-03-17 21:48:00,
2013-03-17 16:50:00,28.5,24.0,29.98,SE,128,12.0,12.0,83,0.00,,,0.00,Wunderground v.1.15,2013-03-17 21:50:00,
2013-03-17 16:52:00,28.6,24.1,29.98,SE,126,8.0,14.0,83,0.00,,,0.00,Wunderground v.1.15,2013-03-17 21:52:00,
2013-03-17 16:53:00,28.6,24.1,29.98,SE,139,9.0,14.0,83,0.00,,,0.00,Wunderground v.1.15,2013-03-17 21:53:00,
2013-03-17 16:55:00,28.7,24.5,29.97,ESE,119,12.0,14.0,84,0.00,,,0.00,Wunderground v.1.15,2013-03-17 21:55:00,
2013-03-17 16:58:00,28.8,24.3,29.97,SE,126,12.0,14.0,83,0.00,,,0.00,Wunderground v.1.15,2013-03-17 21:58:00,
2013-03-17 17:01:00,28.8,24.6,29.97,SE,133,9.0,11.0,84,0.00,,,0.00,Wunderground v.1.15,2013-03-17 22:01:00,
2013-03-17 17:03:00,28.7,24.5,29.97,ESE,115,9.0,14.0,84,0.00,,,0.00,Wunderground v.1.15,2013-03-17 22:03:00,
2013-03-17 17:06:00,28.7,24.2,29.97,ESE,103,14.0,14.0,83,0.00,,,0.00,Wunderground v.1.15,2013-03-17 22:06:00,
2013-03-17 17:08:00,28.7,24.5,29.96,SE,129,12.0,15.0,84,0.00,,,0.00,Wunderground v.1.15,2013-03-17 22:08:00,
2013-03-17 17:12:00,28.7,24.5,29.96,SE,128,9.0,14.0,84,0.00,,,0.00,Wunderground v.1.15,2013-03-17 22:12:00,
2013-03-17 17:13:00,28.7,24.2,29.96,ESE,102,12.0,14.0,83,0.00,,,0.00,Wunderground v.1.15,2013-03-17 22:13:00,
2013-03-17 17:17:00,28.7,24.2,29.96,ESE,117,8.0,14.0,83,0.00,,,0.00,Wunderground v.1.15,2013-03-17 22:17:00,
2013-03-17 17:18:00,28.7,24.5,29.95,SE,124,9.0,14.0,84,0.00,,,0.00,Wunderground v.1.15,2013-03-17 22:18:00,
2013-03-17 17:19:00,28.7,24.5,29.95,ESE,123,11.0,14.0,84,0.00,,,0.00,Wunderground v.1.15,2013-03-17 22:19:00,
2013-03-17 17:23:00,28.8,24.6,29.96,ESE,118,8.0,14.0,84,0.00,,,0.00,Wunderground v.1.15,2013-03-17 22:23:00,
2013-03-17 17:24:00,28.9,24.7,29.96,SSE,153,12.0,15.0,84,0.00,,,0.00,Wunderground v.1.15,2013-03-17 22:24:00,
2013-03-17 17:28:00,28.8,24.3,29.95,SE,132,8.0,15.0,83,0.00,,,0.00,Wunderground v.1.15,2013-03-17 22:28:00,
2013-03-17 17:29:00,28.9,24.7,29.95,SE,126,7.0,15.0,84,0.00,,,0.00,Wunderground v.1.15,2013-03-17 22:29:00,
2013-03-17 17:33:00,29.1,25.2,29.95,SE,127,7.0,12.0,85,0.00,,,0.00,Wunderground v.1.15,2013-03-17 22:33:00,
2013-03-17 17:34:00,29.1,24.9,29.95,ESE,113,11.0,14.0,84,0.00,,,0.00,Wunderground v.1.15,2013-03-17 22:34:00,
2013-03-17 17:38:00,29.0,24.8,29.95,SE,127,8.0,14.0,84,0.00,,,0.00,Wunderground v.1.15,2013-03-17 22:38:00,
2013-03-17 17:39:00,29.0,24.8,29.94,SE,144,9.0,14.0,84,0.00,,,0.00,Wunderground v.1.15,2013-03-17 22:39:00,
2013-03-17 17:40:00,29.0,24.8,29.94,ESE,120,11.0,11.0,84,0.00,,,0.00,Wunderground v.1.15,2013-03-17 22:40:00,
2013-03-17 17:41:00,29.0,24.8,29.94,ESE,110,15.0,15.0,84,0.00,,,0.00,Wunderground v.1.15,2013-03-17 22:41:00,
2013-03-17 17:43:00,29.0,25.1,29.94,ESE,119,14.0,15.0,85,0.00,,,0.00,Wunderground v.1.15,2013-03-17 22:43:00,
2013-03-17 17:44:00,29.1,25.2,29.94,SE,125,13.0,15.0,85,0.00,,,0.00,Wunderground v.1.15,2013-03-17 22:44:00,
2013-03-17 17:45:00,29.1,25.2,29.94,ESE,121,9.0,15.0,85,0.00,,,0.00,Wunderground v.1.15,2013-03-17 22:45:00,
2013-03-17 17:47:00,29.1,24.9,29.94,ESE,121,9.0,15.0,84,0.00,,,0.00,Wunderground v.1.15,2013-03-17 22:47:00,
2013-03-17 17:48:00,29.1,24.9,29.94,ESE,117,9.0,15.0,84,0.00,,,0.00,Wunderground v.1.15,2013-03-17 22:48:00,
2013-03-17 17:49:00,29.2,25.3,29.94,ESE,121,13.0,13.0,85,0.00,,,0.00,Wunderground v.1.15,2013-03-17 22:49:00,
2013-03-17 17:51:00,29.2,25.0,29.93,ESE,109,14.0,19.0,84,0.00,,,0.00,Wunderground v.1.15,2013-03-17 22:51:00,
2013-03-17 17:52:00,29.1,24.9,29.93,ESE,123,9.0,19.0,84,0.00,,,0.00,Wunderground v.1.15,2013-03-17 22:52:00,
2013-03-17 17:53:00,29.1,24.9,29.93,ESE,123,11.0,19.0,84,0.00,,,0.00,Wunderground v.1.15,2013-03-17 22:53:00,
2013-03-17 17:55:00,29.1,24.9,29.93,ESE,112,12.0,19.0,84,0.00,,,0.00,Wunderground v.1.15,2013-03-17 22:55:00,
2013-03-17 17:56:00,29.1,24.9,29.93,ESE,106,18.0,19.0,84,0.00,,,0.00,Wunderground v.1.15,2013-03-17 22:56:00,
2013-03-17 17:57:00,29.1,24.9,29.93,East,101,16.0,19.0,84,0.00,,,0.00,Wunderground v.1.15,2013-03-17 22:57:00,
2013-03-17 17:58:00,29.2,25.0,29.93,ESE,121,11.0,19.0,84,0.00,,,0.00,Wunderground v.1.15,2013-03-17 22:58:00,
2013-03-17 18:00:00,29.2,25.0,29.93,SE,124,11.0,13.0,84,0.00,,,0.00,Wunderground v.1.15,2013-03-17 23:00:00,
2013-03-17 18:02:00,29.2,25.0,29.93,ESE,123,12.0,15.0,84,0.00,,,0.00,Wunderground v.1.15,2013-03-17 23:02:00,
2013-03-17 18:03:00,29.2,25.0,29.93,ESE,108,12.0,18.0,84,0.00,,,0.00,Wunderground v.1.15,2013-03-17 23:03:00,
2013-03-17 18:05:00,29.2,24.7,29.93,SE,139,13.0,18.0,83,0.00,,,0.00,Wunderground v.1.15,2013-03-17 23:05:00,
2013-03-17 18:07:00,29.2,24.7,29.92,ESE,121,9.0,18.0,83,0.00,,,0.00,Wunderground v.1.15,2013-03-17 23:07:00,
2013-03-17 18:08:00,29.2,24.7,29.92,SE,137,9.0,18.0,83,0.00,,,0.00,Wunderground v.1.15,2013-03-17 23:08:00,
2013-03-17 18:11:00,29.2,24.7,29.92,ESE,116,13.0,14.0,83,0.00,,,0.00,Wunderground v.1.15,2013-03-17 23:11:00,
2013-03-17 18:12:00,29.2,24.7,29.92,SE,125,12.0,14.0,83,0.00,,,0.00,Wunderground v.1.15,2013-03-17 23:12:00,
2013-03-17 18:13:00,29.2,24.7,29.92,ESE,118,11.0,14.0,83,0.00,,,0.00,Wunderground v.1.15,2013-03-17 23:13:00,
2013-03-17 18:16:00,29.3,24.8,29.92,SE,124,15.0,16.0,83,0.00,,,0.00,Wunderground v.1.15,2013-03-17 23:16:00,
2013-03-17 18:17:00,29.3,25.1,29.92,ESE,119,11.0,16.0,84,0.00,,,0.00,Wunderground v.1.15,2013-03-17 23:17:00,
2013-03-17 18:18:00,29.3,25.1,29.92,ESE,117,14.0,16.0,84,0.00,,,0.00,Wunderground v.1.15,2013-03-17 23:18:00,
2013-03-17 18:21:00,29.3,25.1,29.92,ESE,119,11.0,13.0,84,0.00,,,0.00,Wunderground v.1.15,2013-03-17 23:21:00,
2013-03-17 18:22:00,29.3,25.1,29.92,ESE,119,11.0,13.0,84,0.00,,,0.00,Wunderground v.1.15,2013-03-17 23:22:00,
2013-03-17 18:24:00,29.3,25.1,29.92,ESE,119,11.0,13.0,84,0.00,,,0.00,Wunderground v.1.15,2013-03-17 23:24:00,
2013-03-17 18:27:00,29.4,25.2,29.92,SE,127,9.0,15.0,84,0.00,,,0.00,Wunderground v.1.15,2013-03-17 23:27:00,
2013-03-17 18:28:00,29.4,25.2,29.92,ESE,121,13.0,18.0,84,0.00,,,0.00,Wunderground v.1.15,2013-03-17 23:28:00,
2013-03-17 18:29:00,29.4,25.2,29.92,SE,133,17.0,18.0,84,0.00,,,0.00,Wunderground v.1.15,2013-03-17 23:29:00,
2013-03-17 18:32:00,29.4,24.9,29.91,SE,124,14.0,18.0,83,0.00,,,0.00,Wunderground v.1.15,2013-03-17 23:32:00,
2013-03-17 18:33:00,29.4,24.9,29.91,ESE,110,12.0,18.0,83,0.00,,,0.00,Wunderground v.1.15,2013-03-17 23:33:00,
2013-03-17 18:35:00,29.4,25.2,29.91,ESE,119,15.0,18.0,84,0.00,,,0.00,Wunderground v.1.15,2013-03-17 23:35:00,
2013-03-17 18:38:00,29.4,25.2,29.91,SE,144,10.0,18.0,84,0.00,,,0.00,Wunderground v.1.15,2013-03-17 23:38:00,
2013-03-17 18:40:00,29.4,25.2,29.91,SE,130,12.0,13.0,84,0.00,,,0.00,Wunderground v.1.15,2013-03-17 23:40:00,
2013-03-17 18:44:00,29.4,25.2,29.91,ESE,123,9.0,16.0,84,0.00,,,0.00,Wunderground v.1.15,2013-03-17 23:44:00,
2013-03-17 18:45:00,29.4,25.2,29.91,ESE,119,9.0,16.0,84,0.00,,,0.00,Wunderground v.1.15,2013-03-17 23:45:00,
2013-03-17 18:49:00,29.4,25.4,29.91,SE,132,14.0,16.0,85,0.00,,,0.00,Wunderground v.1.15,2013-03-17 23:49:00,
2013-03-17 18:50:00,29.4,25.2,29.91,SE,140,12.0,12.0,84,0.00,,,0.00,Wunderground v.1.15,2013-03-17 23:50:00,
2013-03-17 18:54:00,29.4,25.2,29.91,ESE,116,14.0,16.0,84,0.00,,,0.00,Wunderground v.1.15,2013-03-17 23:54:00,
2013-03-17 18:55:00,29.4,25.4,29.91,ESE,111,14.0,16.0,85,0.00,,,0.00,Wunderground v.1.15,2013-03-17 23:55:00,
2013-03-17 18:56:00,29.4,25.4,29.91,ESE,113,13.0,16.0,85,0.00,,,0.00,Wunderground v.1.15,2013-03-17 23:56:00,
2013-03-17 19:00:00,29.4,25.4,29.91,SE,134,13.0,13.0,85,0.00,,,0.00,Wunderground v.1.15,2013-03-18 00:00:00,
2013-03-17 19:01:00,29.4,25.4,29.91,ESE,113,12.0,16.0,85,0.00,,,0.00,Wunderground v.1.15,2013-03-18 00:01:00,
2013-03-17 19:02:00,29.3,25.4,29.91,SE,128,11.0,16.0,85,0.00,,,0.00,Wunderground v.1.15,2013-03-18 00:02:00,
2013-03-17 19:05:00,29.3,25.4,29.91,ESE,104,15.0,18.0,85,0.00,,,0.00,Wunderground v.1.15,2013-03-18 00:05:00,
2013-03-17 19:06:00,29.3,25.4,29.91,East,97,11.0,18.0,85,0.00,,,0.00,Wunderground v.1.15,2013-03-18 00:06:00,
2013-03-17 19:07:00,29.3,25.4,29.91,SE,138,13.0,18.0,85,0.00,,,0.00,Wunderground v.1.15,2013-03-18 00:07:00,
2013-03-17 19:10:00,29.3,25.4,29.91,ESE,121,11.0,16.0,85,0.00,,,0.00,Wunderground v.1.15,2013-03-18 00:10:00,
2013-03-17 19:11:00,29.3,25.4,29.91,ESE,119,8.0,16.0,85,0.00,,,0.00,Wunderground v.1.15,2013-03-18 00:11:00,
2013-03-17 19:12:00,29.3,25.4,29.91,ESE,105,9.0,16.0,85,0.00,,,0.00,Wunderground v.1.15,2013-03-18 00:12:00,
2013-03-17 19:13:00,29.3,25.4,29.91,SE,134,11.0,16.0,85,0.00,,,0.00,Wunderground v.1.15,2013-03-18 00:13:00,
2013-03-17 19:15:00,29.4,25.4,29.91,ESE,113,13.0,16.0,85,0.00,,,0.00,Wunderground v.1.15,2013-03-18 00:15:00,
2013-03-17 19:17:00,29.4,25.7,29.91,SE,127,11.0,16.0,86,0.00,,,0.00,Wunderground v.1.15,2013-03-18 00:17:00,
2013-03-17 19:18:00,29.4,25.7,29.91,ESE,123,13.0,16.0,86,0.00,,,0.00,Wunderground v.1.15,2013-03-18 00:18:00,
2013-03-17 19:20:00,29.4,25.4,29.91,ESE,116,9.0,15.0,85,0.00,,,0.00,Wunderground v.1.15,2013-03-18 00:20:00,
2013-03-17 19:22:00,29.4,25.7,29.91,SE,131,9.0,15.0,86,0.00,,,0.00,Wunderground v.1.15,2013-03-18 00:22:00,
2013-03-17 19:24:00,29.4,25.4,29.91,ESE,117,9.0,16.0,85,0.00,,,0.00,Wunderground v.1.15,2013-03-18 00:24:00,
2013-03-17 19:25:00,29.4,25.7,29.91,ESE,109,19.0,19.0,86,0.00,,,0.00,Wunderground v.1.15,2013-03-18 00:25:00,
2013-03-17 19:27:00,29.4,25.7,29.91,ESE,114,16.0,19.0,86,0.00,,,0.00,Wunderground v.1.15,2013-03-18 00:27:00,
2013-03-17 19:29:00,29.4,25.4,29.90,SE,130,11.0,19.0,85,0.00,,,0.00,Wunderground v.1.15,2013-03-18 00:29:00,
2013-03-17 19:31:00,29.4,25.4,29.90,SE,127,13.0,14.0,85,0.00,,,0.00,Wunderground v.1.15,2013-03-18 00:31:00,
2013-03-17 19:32:00,29.4,25.7,29.90,ESE,109,13.0,15.0,86,0.00,,,0.00,Wunderground v.1.15,2013-03-18 00:32:00,
2013-03-17 19:33:00,29.4,25.7,29.90,ESE,117,14.0,15.0,86,0.00,,,0.00,Wunderground v.1.15,2013-03-18 00:33:00,
2013-03-17 19:34:00,29.4,25.4,29.90,ESE,110,11.0,15.0,85,0.00,,,0.00,Wunderground v.1.15,2013-03-18 00:34:00,
2013-03-17 19:35:00,29.4,25.4,29.90,ESE,123,12.0,15.0,85,0.00,,,0.00,Wunderground v.1.15,2013-03-18 00:35:00,
2013-03-17 19:38:00,29.5,25.8,29.90,SE,128,9.0,15.0,86,0.00,,,0.00,Wunderground v.1.15,2013-03-18 00:38:00,
2013-03-17 19:39:00,29.5,25.8,29.90,SE,126,13.0,15.0,86,0.00,,,0.00,Wunderground v.1.15,2013-03-18 00:39:00,
2013-03-17 19:41:00,29.5,25.8,29.90,SE,136,11.0,13.0,86,0.00,,,0.00,Wunderground v.1.15,2013-03-18 00:41:00,
2013-03-17 19:43:00,29.5,25.8,29.90,SE,132,8.0,16.0,86,0.00,,,0.00,Wunderground v.1.15,2013-03-18 00:43:00,
2013-03-17 19:45:00,29.5,25.8,29.90,SE,140,10.0,18.0,86,0.00,,,0.00,Wunderground v.1.15,2013-03-18 00:45:00,
2013-03-17 19:46:00,29.5,25.8,29.89,ESE,113,12.0,18.0,86,0.00,,,0.00,Wunderground v.1.15,2013-03-18 00:46:00,
2013-03-17 19:48:00,29.6,25.9,29.89,SE,132,13.0,18.0,86,0.00,,,0.00,Wunderground v.1.15,2013-03-18 00:48:00,
2013-03-17 19:50:00,29.5,25.8,29.90,ESE,117,9.0,15.0,86,0.00,,,0.00,Wunderground v.1.15,2013-03-18 00:50:00,
2013-03-17 19:52:00,29.5,25.8,29.89,ESE,104,12.0,15.0,86,0.00,,,0.00,Wunderground v.1.15,2013-03-18 00:52:00,
2013-03-17 19:53:00,29.5,26.1,29.89,SE,132,11.0,15.0,87,0.00,,,0.00,Wunderground v.1.15,2013-03-18 00:53:00,
2013-03-17 19:57:00,29.4,26.0,29.89,SE,132,13.0,15.0,87,0.00,,,0.00,Wunderground v.1.15,2013-03-18 00:57:00,
2013-03-17 19:58:00,29.4,25.7,29.90,ESE,123,12.0,15.0,86,0.00,,,0.00,Wunderground v.1.15,2013-03-18 00:58:00,
2013-03-17 19:59:00,29.5,25.8,29.90,ESE,119,14.0,15.0,86,0.00,,,0.00,Wunderground v.1.15,2013-03-18 00:59:00,
2013-03-17 20:02:00,29.5,25.8,29.90,SE,137,10.0,13.0,86,0.00,,,0.00,Wunderground v.1.15,2013-03-18 01:02:00,
2013-03-17 20:03:00,29.5,26.1,29.90,ESE,119,13.0,14.0,87,0.00,,,0.00,Wunderground v.1.15,2013-03-18 01:03:00,
2013-03-17 20:04:00,29.5,26.1,29.90,SE,134,9.0,14.0,87,0.00,,,0.00,Wunderground v.1.15,2013-03-18 01:04:00,
2013-03-17 20:07:00,29.6,25.9,29.90,ESE,122,13.0,14.0,86,0.00,,,0.00,Wunderground v.1.15,2013-03-18 01:07:00,
2013-03-17 20:08:00,29.6,25.9,29.90,ESE,111,9.0,14.0,86,0.00,,,0.00,Wunderground v.1.15,2013-03-18 01:08:00,
2013-03-17 20:09:00,29.6,25.9,29.91,SE,129,12.0,14.0,86,0.00,,,0.00,Wunderground v.1.15,2013-03-18 01:09:00,
2013-03-17 20:12:00,29.6,26.2,29.90,SE,130,8.0,12.0,87,0.00,,,0.00,Wunderground v.1.15,2013-03-18 01:12:00,
2013-03-17 20:13:00,29.6,26.2,29.90,ESE,121,8.0,12.0,87,0.00,,,0.00,Wunderground v.1.15,2013-03-18 01:13:00,
2013-03-17 20:14:00,29.7,26.3,29.91,ESE,119,9.0,12.0,87,0.00,,,0.00,Wunderground v.1.15,2013-03-18 01:14:00,
2013-03-17 20:17:00,29.7,26.3,29.91,SE,140,9.0,13.0,87,0.00,,,0.00,Wunderground v.1.15,2013-03-18 01:17:00,
2013-03-17 20:18:00,29.7,26.3,29.91,ESE,121,9.0,13.0,87,0.00,,,0.00,Wunderground v.1.15,2013-03-18 01:18:00,
2013-03-17 20:20:00,29.7,26.3,29.91,SE,140,11.0,11.0,87,0.00,,,0.00,Wunderground v.1.15,2013-03-18 01:20:00,
2013-03-17 20:22:00,29.8,26.4,29.91,SE,142,8.0,12.0,87,0.00,,,0.00,Wunderground v.1.15,2013-03-18 01:22:00,
2013-03-17 20:23:00,29.8,26.4,29.91,ESE,121,11.0,12.0,87,0.00,,,0.00,Wunderground v.1.15,2013-03-18 01:23:00,
2013-03-17 20:25:00,29.8,26.4,29.91,SSE,148,8.0,13.0,87,0.00,,,0.00,Wunderground v.1.15,2013-03-18 01:25:00,
2013-03-17 20:28:00,29.9,26.5,29.91,SE,139,10.0,13.0,87,0.00,,,0.00,Wunderground v.1.15,2013-03-18 01:28:00,
2013-03-17 20:29:00,29.9,26.5,29.91,SE,142,10.0,13.0,87,0.00,,,0.00,Wunderground v.1.15,2013-03-18 01:29:00,
2013-03-17 20:30:00,29.9,26.5,29.91,SE,136,11.0,13.0,87,0.00,,,0.00,Wunderground v.1.15,2013-03-18 01:30:00,
2013-03-17 20:33:00,29.9,26.5,29.91,ESE,115,12.0,13.0,87,0.00,,,0.00,Wunderground v.1.15,2013-03-18 01:33:00,
2013-03-17 20:34:00,29.9,26.5,29.91,SE,136,13.0,15.0,87,0.00,,,0.00,Wunderground v.1.15,2013-03-18 01:34:00,
2013-03-17 20:35:00,29.9,26.5,29.91,SE,127,11.0,17.0,87,0.00,,,0.00,Wunderground v.1.15,2013-03-18 01:35:00,
2013-03-17 20:38:00,30.0,26.6,29.91,SE,141,11.0,17.0,87,0.00,,,0.00,Wunderground v.1.15,2013-03-18 01:38:00,
2013-03-17 20:39:00,30.0,26.6,29.91,SE,146,13.0,17.0,87,0.00,,,0.00,Wunderground v.1.15,2013-03-18 01:39:00,
2013-03-17 20:40:00,30.0,26.6,29.91,SE,139,9.0,12.0,87,0.00,,,0.00,Wunderground v.1.15,2013-03-18 01:40:00,
2013-03-17 20:43:00,30.0,26.6,29.91,SE,136,10.0,14.0,87,0.00,,,0.00,Wunderground v.1.15,2013-03-18 01:43:00,
2013-03-17 20:44:00,30.0,26.6,29.91,ESE,123,12.0,14.0,87,0.00,,,0.00,Wunderground v.1.15,2013-03-18 01:44:00,
2013-03-17 20:45:00,30.0,26.6,29.91,SE,141,11.0,14.0,87,0.00,,,0.00,Wunderground v.1.15,2013-03-18 01:45:00,
2013-03-17 20:48:00,30.0,26.6,29.91,SE,137,10.0,14.0,87,0.00,,,0.00,Wunderground v.1.15,2013-03-18 01:48:00,
2013-03-17 20:49:00,30.0,26.6,29.91,SE,131,11.0,14.0,87,0.00,,,0.00,Wunderground v.1.15,2013-03-18 01:49:00,
2013-03-17 20:50:00,29.9,26.5,29.91,SE,125,9.0,12.0,87,0.00,,,0.00,Wunderground v.1.15,2013-03-18 01:50:00,
2013-03-17 20:53:00,30.0,26.6,29.91,SE,143,9.0,15.0,87,0.00,,,0.00,Wunderground v.1.15,2013-03-18 01:53:00,
2013-03-17 20:54:00,30.0,26.6,29.91,SE,138,10.0,15.0,87,0.00,,,0.00,Wunderground v.1.15,2013-03-18 01:54:00,
2013-03-17 20:56:00,30.0,26.9,29.91,SE,128,9.0,15.0,88,0.00,,,0.00,Wunderground v.1.15,2013-03-18 01:56:00,
2013-03-17 20:58:00,30.0,26.9,29.91,SE,141,9.0,15.0,88,0.00,,,0.00,Wunderground v.1.15,2013-03-18 01:58:00,
2013-03-17 20:59:00,30.0,26.9,29.91,SE,124,9.0,15.0,88,0.00,,,0.00,Wunderground v.1.15,2013-03-18 01:59:00,
2013-03-17 21:01:00,30.0,26.9,29.91,SE,132,9.0,10.0,88,0.00,,,0.00,Wunderground v.1.15,2013-03-18 02:01:00,
2013-03-17 21:03:00,30.1,27.0,29.91,SSE,153,9.0,13.0,88,0.00,,,0.00,Wunderground v.1.15,2013-03-18 02:03:00,
2013-03-17 21:04:00,30.1,27.0,29.91,SE,125,8.0,13.0,88,0.00,,,0.00,Wunderground v.1.15,2013-03-18 02:04:00,
2013-03-17 21:05:00,30.1,27.0,29.91,SE,130,11.0,13.0,88,0.00,,,0.00,Wunderground v.1.15,2013-03-18 02:05:00,
2013-03-17 21:06:00,30.1,27.0,29.91,SE,139,10.0,13.0,88,0.00,,,0.00,Wunderground v.1.15,2013-03-18 02:06:00,
2013-03-17 21:09:00,30.1,27.0,29.90,ESE,123,11.0,17.0,88,0.00,,,0.00,Wunderground v.1.15,2013-03-18 02:09:00,
2013-03-17 21:10:00,30.1,27.0,29.90,SE,124,9.0,12.0,88,0.00,,,0.00,Wunderground v.1.15,2013-03-18 02:10:00,
2013-03-17 21:11:00,30.1,27.0,29.90,ESE,123,11.0,12.0,88,0.00,,,0.00,Wunderground v.1.15,2013-03-18 02:11:00,
2013-03-17 21:14:00,30.1,27.0,29.90,SE,145,9.0,15.0,88,0.00,,,0.00,Wunderground v.1.15,2013-03-18 02:14:00,
2013-03-17 21:15:00,30.1,27.0,29.90,SE,138,12.0,15.0,88,0.00,,,0.00,Wunderground v.1.15,2013-03-18 02:15:00,
2013-03-17 21:17:00,30.1,27.0,29.90,ESE,123,9.0,15.0,88,0.00,,,0.00,Wunderground v.1.15,2013-03-18 02:17:00,
2013-03-17 21:19:00,30.1,27.0,29.90,SE,140,7.0,15.0,88,0.00,,,0.00,Wunderground v.1.15,2013-03-18 02:19:00,
2013-03-17 21:20:00,30.1,27.0,29.90,SE,144,11.0,13.0,88,0.00,,,0.00,Wunderground v.1.15,2013-03-18 02:20:00,
2013-03-17 21:22:00,30.2,27.1,29.89,SE,136,9.0,13.0,88,0.00,,,0.00,Wunderground v.1.15,2013-03-18 02:22:00,
2013-03-17 21:25:00,30.2,27.1,29.89,SE,144,11.0,13.0,88,0.00,,,0.00,Wunderground v.1.15,2013-03-18 02:25:00,
2013-03-17 21:26:00,30.2,27.1,29.89,SSE,154,12.0,13.0,88,0.00,,,0.00,Wunderground v.1.15,2013-03-18 02:26:00,
2013-03-17 21:27:00,30.2,27.1,29.89,SE,128,11.0,13.0,88,0.00,,,0.00,Wunderground v.1.15,2013-03-18 02:27:00,
2013-03-17 21:30:00,30.2,27.1,29.89,ESE,116,12.0,13.0,88,0.00,,,0.00,Wunderground v.1.15,2013-03-18 02:30:00,
2013-03-17 21:31:00,30.3,27.2,29.89,SE,144,11.0,13.0,88,0.00,,,0.00,Wunderground v.1.15,2013-03-18 02:31:00,
2013-03-17 21:32:00,30.3,27.2,29.89,SE,140,13.0,18.0,88,0.00,,,0.00,Wunderground v.1.15,2013-03-18 02:32:00,
2013-03-17 21:35:00,30.3,27.2,29.89,SE,144,7.0,18.0,88,0.00,,,0.00,Wunderground v.1.15,2013-03-18 02:35:00,
2013-03-17 21:36:00,30.3,27.2,29.89,SE,138,9.0,18.0,88,0.00,,,0.00,Wunderground v.1.15,2013-03-18 02:36:00,
2013-03-17 21:37:00,30.3,27.2,29.88,SE,134,12.0,18.0,88,0.00,,,0.00,Wunderground v.1.15,2013-03-18 02:37:00,
2013-03-17 21:40:00,30.3,27.2,29.88,SE,134,11.0,14.0,88,0.00,,,0.00,Wunderground v.1.15,2013-03-18 02:40:00,
2013-03-17 21:42:00,30.3,27.2,29.88,SE,139,11.0,14.0,88,0.00,,,0.00,Wunderground v.1.15,2013-03-18 02:42:00,
2013-03-17 21:46:00,30.4,27.3,29.88,SE,136,14.0,18.0,88,0.00,,,0.00,Wunderground v.1.15,2013-03-18 02:46:00,
2013-03-17 21:47:00,30.4,27.3,29.88,SE,145,12.0,18.0,88,0.00,,,0.00,Wunderground v.1.15,2013-03-18 02:47:00,
2013-03-17 21:48:00,30.4,27.3,29.88,ESE,117,13.0,18.0,88,0.00,,,0.00,Wunderground v.1.15,2013-03-18 02:48:00,
2013-03-17 21:52:00,30.4,27.3,29.88,SE,125,13.0,16.0,88,0.00,,,0.00,Wunderground v.1.15,2013-03-18 02:52:00,
2013-03-17 21:53:00,30.4,27.3,29.88,SE,132,11.0,16.0,88,0.00,,,0.00,Wunderground v.1.15,2013-03-18 02:53:00,
2013-03-17 21:57:00,30.5,27.4,29.88,ESE,110,13.0,17.0,88,0.00,,,0.00,Wunderground v.1.15,2013-03-18 02:57:00,
2013-03-17 21:58:00,30.5,27.4,29.88,SE,127,9.0,17.0,88,0.00,,,0.00,Wunderground v.1.15,2013-03-18 02:58:00,
2013-03-17 22:02:00,30.5,27.6,29.88,SE,145,11.0,15.0,89,0.00,,,0.00,Wunderground v.1.15,2013-03-18 03:02:00,
2013-03-17 22:03:00,30.5,27.6,29.88,SSE,161,11.0,15.0,89,0.00,,,0.00,Wunderground v.1.15,2013-03-18 03:03:00,
2013-03-17 22:07:00,30.5,27.6,29.88,SE,130,13.0,18.0,89,0.00,,,0.00,Wunderground v.1.15,2013-03-18 03:07:00,
2013-03-17 22:08:00,30.6,27.7,29.88,SE,139,11.0,18.0,89,0.00,,,0.00,Wunderground v.1.15,2013-03-18 03:08:00,
2013-03-17 22:13:00,30.6,27.7,29.88,SE,127,11.0,19.0,89,0.00,,,0.00,Wunderground v.1.15,2013-03-18 03:13:00,
2013-03-17 22:18:00,30.7,27.8,29.89,SE,142,11.0,19.0,89,0.00,,,0.00,Wunderground v.1.15,2013-03-18 03:18:00,
2013-03-17 22:19:00,30.7,27.8,29.89,SSE,161,12.0,20.0,89,0.00,,,0.00,Wunderground v.1.15,2013-03-18 03:19:00,
2013-03-17 22:23:00,30.7,27.8,29.89,SE,141,13.0,15.0,89,0.00,,,0.00,Wunderground v.1.15,2013-03-18 03:23:00,
2013-03-17 22:24:00,30.6,27.7,29.88,SE,145,14.0,17.0,89,0.00,,,0.00,Wunderground v.1.15,2013-03-18 03:24:00,
2013-03-17 22:28:00,30.7,27.8,29.89,SE,135,8.0,18.0,89,0.00,,,0.00,Wunderground v.1.15,2013-03-18 03:28:00,
2013-03-17 22:29:00,30.7,27.8,29.88,SSE,161,15.0,19.0,89,0.00,,,0.00,Wunderground v.1.15,2013-03-18 03:29:00,
2013-03-17 22:33:00,30.7,27.8,29.88,SE,139,14.0,20.0,89,0.00,,,0.00,Wunderground v.1.15,2013-03-18 03:33:00,
2013-03-17 22:34:00,30.7,27.8,29.88,SE,146,13.0,20.0,89,0.00,,,0.00,Wunderground v.1.15,2013-03-18 03:34:00,
2013-03-17 22:38:00,30.8,27.7,29.87,SSE,162,18.0,22.0,88,0.00,,,0.00,Wunderground v.1.15,2013-03-18 03:38:00,
2013-03-17 22:39:00,30.7,27.6,29.87,SE,143,14.0,22.0,88,0.00,,,0.00,Wunderground v.1.15,2013-03-18 03:39:00,
2013-03-17 22:43:00,30.8,27.7,29.88,SSE,153,16.0,21.0,88,0.00,,,0.00,Wunderground v.1.15,2013-03-18 03:43:00,
2013-03-17 22:44:00,30.8,27.7,29.88,SSE,150,14.0,21.0,88,0.00,,,0.00,Wunderground v.1.15,2013-03-18 03:44:00,
2013-03-17 22:49:00,30.7,27.6,29.88,SSE,153,13.0,21.0,88,0.00,,,0.00,Wunderground v.1.15,2013-03-18 03:49:00,
2013-03-17 22:54:00,30.7,27.6,29.87,SE,139,11.0,22.0,88,0.00,,,0.00,Wunderground v.1.15,2013-03-18 03:54:00,
2013-03-17 22:55:00,30.7,27.6,29.87,SE,130,18.0,22.0,88,0.00,,,0.00,Wunderground v.1.15,2013-03-18 03:55:00,
2013-03-17 22:59:00,30.7,27.3,29.87,SSE,148,14.0,22.0,87,0.00,,,0.00,Wunderground v.1.15,2013-03-18 03:59:00,
2013-03-17 23:00:00,30.7,27.3,29.87,SSE,150,15.0,15.0,87,0.00,,,0.00,Wunderground v.1.15,2013-03-18 04:00:00,
2013-03-17 23:05:00,30.7,27.6,29.87,SSE,153,15.0,22.0,88,0.00,,,0.00,Wunderground v.1.15,2013-03-18 04:05:00,
2013-03-17 23:06:00,30.7,27.6,29.87,SE,143,17.0,22.0,88,0.00,,,0.00,Wunderground v.1.15,2013-03-18 04:06:00,
2013-03-17 23:10:00,30.7,27.6,29.87,SSE,159,15.0,19.0,88,0.00,,,0.00,Wunderground v.1.15,2013-03-18 04:10:00,
2013-03-17 23:12:00,30.7,27.6,29.86,SSE,159,15.0,19.0,88,0.00,,,0.00,Wunderground v.1.15,2013-03-18 04:12:00,
2013-03-17 23:15:00,30.7,27.6,29.86,SSE,148,17.0,19.0,88,0.00,,,0.00,Wunderground v.1.15,2013-03-18 04:15:00,
2013-03-17 23:17:00,30.7,27.6,29.86,SSE,155,15.0,23.0,88,0.00,,,0.00,Wunderground v.1.15,2013-03-18 04:17:00,
2013-03-17 23:20:00,30.6,27.5,29.86,SSE,158,17.0,22.0,88,0.00,,,0.00,Wunderground v.1.15,2013-03-18 04:20:00,
2013-03-17 23:22:00,30.7,27.6,29.86,SSE,162,21.0,22.0,88,0.00,,,0.00,Wunderground v.1.15,2013-03-18 04:22:00,
2013-03-17 23:26:00,30.6,27.5,29.86,SE,136,17.0,25.0,88,0.00,,,0.00,Wunderground v.1.15,2013-03-18 04:26:00,
2013-03-17 23:27:00,30.6,27.5,29.86,SSE,157,15.0,25.0,88,0.00,,,0.00,Wunderground v.1.15,2013-03-18 04:27:00,
2013-03-17 23:31:00,30.6,27.5,29.85,SSE,159,16.0,19.0,88,0.00,,,0.00,Wunderground v.1.15,2013-03-18 04:31:00,
2013-03-17 23:32:00,30.6,27.5,29.85,SE,136,13.0,19.0,88,0.00,,,0.00,Wunderground v.1.15,2013-03-18 04:32:00,
2013-03-17 23:33:00,30.6,27.5,29.85,SSE,161,15.0,19.0,88,0.00,,,0.00,Wunderground v.1.15,2013-03-18 04:33:00,
2013-03-17 23:37:00,30.5,27.4,29.85,SSE,148,14.0,21.0,88,0.00,,,0.00,Wunderground v.1.15,2013-03-18 04:37:00,
2013-03-17 23:38:00,30.5,27.4,29.85,SSE,159,15.0,21.0,88,0.00,,,0.00,Wunderground v.1.15,2013-03-18 04:38:00,
2013-03-17 23:42:00,30.5,27.6,29.84,SSE,167,16.0,20.0,89,0.00,,,0.00,Wunderground v.1.15,2013-03-18 04:42:00,
2013-03-17 23:43:00,30.5,27.6,29.84,SE,144,14.0,20.0,89,0.00,,,0.00,Wunderground v.1.15,2013-03-18 04:43:00,
2013-03-17 23:47:00,30.4,27.5,29.84,SSE,165,14.0,21.0,89,0.00,,,0.00,Wunderground v.1.15,2013-03-18 04:47:00,
2013-03-17 23:48:00,30.4,27.5,29.83,SSE,148,20.0,23.0,89,0.00,,,0.00,Wunderground v.1.15,2013-03-18 04:48:00,
2013-03-17 23:49:00,30.4,27.5,29.83,SSE,166,14.0,23.0,89,0.00,,,0.00,Wunderground v.1.15,2013-03-18 04:49:00,
2013-03-17 23:52:00,30.3,27.4,29.83,SE,134,19.0,25.0,89,0.00,,,0.00,Wunderground v.1.15,2013-03-18 04:52:00,
2013-03-17 23:53:00,30.3,27.4,29.83,SE,145,15.0,25.0,89,0.00,,,0.00,Wunderground v.1.15,2013-03-18 04:53:00,
2013-03-17 23:54:00,30.3,27.4,29.83,SE,144,13.0,25.0,89,0.00,,,0.00,Wunderground v.1.15,2013-03-18 04:54:00,
2013-03-17 23:58:00,30.3,27.7,29.82,SE,146,12.0,25.0,90,0.00,,,0.00,Wunderground v.1.15,2013-03-18 04:58:00,
2013-03-17 23:59:00,30.2,27.6,29.82,SE,144,13.0,25.0,90,0.00,,,0.00,Wunderground v.1.15,2013-03-18 04:59:00,